FW1385 Weather Reports


Display with metric or nautical units.
time (UTC)temp
F
wind
direction
speed
MPH
gust
MPH
rain 1hr
in
rain 24hr
in
rain mn
in
humidity
%
barometer
mb
20260901182317 96 261 2.0 5.0 0.00 0.00 0.00 52 1016.9
20260901182305 96 268 2.0 5.0 0.00 0.00 0.00 52 1016.9
20260901182204 96 308 2.0 5.0 0.00 0.00 0.00 53 1016.9
20260901182004 97 324 1.0 5.0 0.00 0.00 0.00 50 1016.9
20260901181904 97 337 1.0 4.0 0.00 0.00 0.00 53 1016.9
20260901181803 96 8 1.0 4.0 0.00 0.00 0.00 51 1016.9
20260901181703 96 19 1.0 4.0 0.00 0.00 0.00 52 1016.9
20260901181618 96 26 1.0 4.0 0.00 0.00 0.00 56 1016.9
20260901181603 96 27 1.0 4.0 0.00 0.00 0.00 56 1016.9
20260901181518 96 33 1.0 4.0 0.00 0.00 0.00 53 1017.0
20260901181503 96 38 1.0 4.0 0.00 0.00 0.00 53 1017.0
20260901181204 94 109 1.0 4.0 0.00 0.00 0.00 54 1017.1
20260901181103 94 109 1.0 4.0 0.00 0.00 0.00 56 1017.1
20260901181004 94 101 1.0 4.0 0.00 0.00 0.00 55 1017.1
20260901180918 94 94 1.0 4.0 0.00 0.00 0.00 52 1017.1
20260901180903 94 93 1.0 4.0 0.00 0.00 0.00 52 1017.1
20260901180803 95 129 1.0 4.0 0.00 0.00 0.00 51 1017.2
20260901180618 96 261 1.0 4.0 0.00 0.00 0.00 51 1017.2
20260901180603 96 253 1.0 4.0 0.00 0.00 0.00 51 1017.2
20260901180503 97 291 1.0 4.0 0.00 0.00 0.00 51 1017.2
20260901180417 97 5 1.0 4.0 0.00 0.00 0.00 52 1017.2
20260901180317 97 356 1.0 4.0 0.00 0.00 0.00 51 1017.2
20260901180303 97 353 1.0 4.0 0.00 0.00 0.00 54 1017.2
20260901180003 98 354 1.0 4.0 0.00 0.00 0.00 53 1017.2
20260901175918 98 4 1.0 4.0 0.00 0.00 0.00 52 1017.2
20260901175903 98 9 1.0 4.0 0.00 0.00 0.00 52 1017.2
20260901175803 98 18 1.0 5.0 0.00 0.00 0.00 54 1017.2
20260901175604 98 20 1.0 5.0 0.00 0.00 0.00 52 1017.2
20260901175503 97 13 1.0 5.0 0.00 0.00 0.00 50 1017.3
20260901175403 97 15 1.0 5.0 0.00 0.00 0.00 51 1017.3
20260901175305 97 15 1.0 5.0 0.00 0.00 0.00 53 1017.3
20260901175203 97 15 1.0 5.0 0.00 0.00 0.00 53 1017.3
20260901175103 97 14 1.0 5.0 0.00 0.00 0.00 51 1017.3
20260901175004 97 11 1.0 5.0 0.00 0.00 0.00 52 1017.2
20260901174903 97 7 2.0 5.0 0.00 0.00 0.00 51 1017.3
20260901174818 97 8 1.0 5.0 0.00 0.00 0.00 53 1017.3
20260901174803 97 9 1.0 5.0 0.00 0.00 0.00 53 1017.3
20260901174719 97 11 1.0 5.0 0.00 0.00 0.00 53 1017.4
20260901174703 97 13 1.0 5.0 0.00 0.00 0.00 53 1017.4
20260901174404 97 359 2.0 5.0 0.00 0.00 0.00 52 1017.4
20260901174304 97 2 2.0 5.0 0.00 0.00 0.00 52 1017.4
20260901174204 97 5 2.0 5.0 0.00 0.00 0.00 51 1017.4
20260901174006 97 25 2.0 5.0 0.00 0.00 0.00 53 1017.4
20260901173903 97 92 1.0 4.0 0.00 0.00 0.00 53 1017.5
20260901173803 97 119 1.0 4.0 0.00 0.00 0.00 52 1017.5
20260901173703 97 157 1.0 4.0 0.00 0.00 0.00 52 1017.5
20260901173603 97 148 1.0 4.0 0.00 0.00 0.00 53 1017.5
20260901173503 97 126 1.0 4.0 0.00 0.00 0.00 52 1017.5
20260901173404 97 100 1.0 3.0 0.00 0.00 0.00 53 1017.6
20260901173304 97 85 1.0 3.0 0.00 0.00 0.00 52 1017.6
20260901173203 97 75 1.0 3.0 0.00 0.00 0.00 53 1017.6
20260901173103 97 55 1.0 3.0 0.00 0.00 0.00 54 1017.6
20260901173017 97 94 1.0 3.0 0.00 0.00 0.00 54 1017.6
20260901173004 97 117 1.0 3.0 0.00 0.00 0.00 54 1017.6
20260901172904 97 199 1.0 3.0 0.00 0.00 0.00 54 1017.6
20260901172818 97 203 1.0 3.0 0.00 0.00 0.00 54 1017.6
20260901172703 97 201 1.0 3.0 0.00 0.00 0.00 53 1017.6
20260901172503 97 193 1.0 3.0 0.00 0.00 0.00 54 1017.6
20260901172404 96 195 1.0 3.0 0.00 0.00 0.00 56 1017.7
20260901172305 96 190 1.0 3.0 0.00 0.00 0.00 56 1017.7
20260901172204 96 191 1.0 3.0 0.00 0.00 0.00 57 1017.7
20260901172104 96 195 1.0 3.0 0.00 0.00 0.00 53 1017.7
20260901172003 96 207 1.0 3.0 0.00 0.00 0.00 55 1017.7
20260901171918 96 219 1.0 3.0 0.00 0.00 0.00 55 1017.8
20260901171804 96 258 1.0 3.0 0.00 0.00 0.00 54 1017.8
20260901171603 96 311 1.0 3.0 0.00 0.00 0.00 55 1017.8
20260901171503 96 318 1.0 3.0 0.00 0.00 0.00 55 1017.8
20260901171403 95 316 1.0 4.0 0.00 0.00 0.00 55 1017.8
20260901171204 95 331 2.0 5.0 0.00 0.00 0.00 56 1017.8
20260901171103 95 337 2.0 5.0 0.00 0.00 0.00 56 1017.8
20260901171003 95 341 2.0 5.0 0.00 0.00 0.00 56 1017.8
20260901170904 95 342 1.0 5.0 0.00 0.00 0.00 59 1017.9
20260901170804 95 347 1.0 5.0 0.00 0.00 0.00 58 1017.9
20260901170603 95 353 1.0 5.0 0.00 0.00 0.00 56 1017.8
20260901170503 95 2 1.0 5.0 0.00 0.00 0.00 57 1017.9
20260901170403 95 14 1.0 5.0 0.00 0.00 0.00 58 1017.9
20260901170304 94 18 1.0 5.0 0.00 0.00 0.00 58 1017.9
20260901170203 94 20 1.0 3.0 0.00 0.00 0.00 59 1017.9
20260901170004 94 19 1.0 2.0 0.00 0.00 0.00 58 1018.0
20260901165904 94 19 1.0 2.0 0.00 0.00 0.00 59 1018.0
20260901165804 94 19 1.0 2.0 0.00 0.00 0.00 59 1018.1
20260901165703 94 19 1.0 2.0 0.00 0.00 0.00 58 1018.1
20260901165603 94 19 1.0 2.0 0.00 0.00 0.00 58 1018.1
20260901165403 94 18 1.0 2.0 0.00 0.00 0.00 58 1018.1
20260901165306 94 18 1.0 2.0 0.00 0.00 0.00 58 1018.1
20260901165218 94 18 1.0 2.0 0.00 0.00 0.00 58 1018.1
20260901165203 94 18 1.0 2.0 0.00 0.00 0.00 59 1018.1
20260901165103 94 17 1.0 2.0 0.00 0.00 0.00 59 1018.1
20260901164904 94 17 1.0 2.0 0.00 0.00 0.00 59 1018.1
20260901164803 94 17 1.0 2.0 0.00 0.00 0.00 59 1018.1
20260901164719 94 16 1.0 3.0 0.00 0.00 0.00 58 1018.1
20260901164619 94 10 1.0 3.0 0.00 0.00 0.00 57 1018.1
20260901164603 94 7 1.0 3.0 0.00 0.00 0.00 59 1018.1
20260901164304 94 352 1.0 3.0 0.00 0.00 0.00 60 1018.2
20260901164203 94 348 1.0 3.0 0.00 0.00 0.00 59 1018.2
20260901164103 94 342 1.0 3.0 0.00 0.00 0.00 57 1018.2
20260901164004 94 326 1.0 6.0 0.00 0.00 0.00 57 1018.2
20260901163904 94 315 1.0 6.0 0.00 0.00 0.00 56 1018.2
20260901163804 94 303 1.0 6.0 0.00 0.00 0.00 55 1018.2
20260901163703 95 279 1.0 6.0 0.00 0.00 0.00 55 1018.2
20260901163603 95 283 1.0 6.0 0.00 0.00 0.00 55 1018.2
20260901163503 95 296 1.0 6.0 0.00 0.00 0.00 55 1018.3
20260901163403 95 320 1.0 6.0 0.00 0.00 0.00 56 1018.2
20260901163303 95 339 1.0 6.0 0.00 0.00 0.00 57 1018.2
20260901163204 95 339 1.0 6.0 0.00 0.00 0.00 56 1018.2
20260901163003 95 31 1.0 4.0 0.00 0.00 0.00 57 1018.3
20260901162903 95 65 1.0 4.0 0.00 0.00 0.00 57 1018.3
20260901162803 95 68 1.0 4.0 0.00 0.00 0.00 57 1018.3
20260901162703 95 87 1.0 4.0 0.00 0.00 0.00 57 1018.3
20260901162603 95 118 1.0 4.0 0.00 0.00 0.00 55 1018.3
20260901162503 95 153 1.0 4.0 0.00 0.00 0.00 57 1018.3
20260901162404 95 188 1.0 4.0 0.00 0.00 0.00 55 1018.3
20260901162306 95 215 1.0 2.0 0.00 0.00 0.00 57 1018.3
20260901162217 95 233 1.0 2.0 0.00 0.00 0.00 57 1018.4
20260901162203 95 228 1.0 2.0 0.00 0.00 0.00 57 1018.4
20260901162103 95 229 1.0 2.0 0.00 0.00 0.00 55 1018.4
20260901161903 94 230 1.0 2.0 0.00 0.00 0.00 56 1018.4
20260901161803 94 228 1.0 2.0 0.00 0.00 0.00 56 1018.4
20260901161704 94 193 1.0 3.0 0.00 0.00 0.00 57 1018.3
20260901161619 94 164 1.0 3.0 0.00 0.00 0.00 58 1018.3
20260901161603 94 156 1.0 3.0 0.00 0.00 0.00 58 1018.4
20260901161503 94 144 1.0 3.0 0.00 0.00 0.00 58 1018.4
20260901161304 94 139 1.0 3.0 0.00 0.00 0.00 58 1018.4
20260901161204 94 142 1.0 3.0 0.00 0.00 0.00 60 1018.5
20260901161016 94 154 1.0 3.0 0.00 0.00 0.00 59 1018.4
20260901161003 94 156 1.0 3.0 0.00 0.00 0.00 59 1018.4
20260901160904 94 164 1.0 3.0 0.00 0.00 0.00 59 1018.5
20260901160818 94 171 1.0 3.0 0.00 0.00 0.00 59 1018.5
20260901160703 94 204 1.0 4.0 0.00 0.00 0.00 59 1018.5
20260901160503 94 222 1.0 4.0 0.00 0.00 0.00 59 1018.5
20260901160404 93 226 1.0 4.0 0.00 0.00 0.00 60 1018.5
20260901160304 93 222 1.0 4.0 0.00 0.00 0.00 59 1018.5
20260901160204 93 219 1.0 4.0 0.00 0.00 0.00 58 1018.5
20260901160104 93 210 1.0 4.0 0.00 0.00 0.00 59 1018.5
20260901160004 93 211 1.0 4.0 0.00 0.00 0.00 60 1018.5
20260901155903 93 216 1.0 4.0 0.00 0.00 0.00 60 1018.5
20260901155804 93 228 2.0 5.0 0.00 0.00 0.00 61 1018.5
20260901155704 93 208 1.0 5.0 0.00 0.00 0.00 59 1018.5
20260901155604 93 206 1.0 5.0 0.00 0.00 0.00 60 1018.5
20260901155504 93 208 1.0 5.0 0.00 0.00 0.00 61 1018.5
20260901155404 93 211 1.0 5.0 0.00 0.00 0.00 61 1018.5
20260901155306 93 208 1.0 5.0 0.00 0.00 0.00 59 1018.5
20260901155203 93 194 1.0 5.0 0.00 0.00 0.00 60 1018.5
20260901155103 93 184 1.0 5.0 0.00 0.00 0.00 60 1018.5
20260901155003 93 158 1.0 5.0 0.00 0.00 0.00 60 1018.5
20260901154904 93 150 1.0 5.0 0.00 0.00 0.00 63 1018.5
20260901154803 93 143 1.0 3.0 0.00 0.00 0.00 61 1018.5
20260901154704 93 143 1.0 3.0 0.00 0.00 0.00 61 1018.5
20260901154604 93 142 1.0 3.0 0.00 0.00 0.00 61 1018.5
20260901154504 93 141 1.0 3.0 0.00 0.00 0.00 61 1018.4
20260901154404 93 140 1.0 3.0 0.00 0.00 0.00 61 1018.4
20260901154304 93 142 1.0 4.0 0.00 0.00 0.00 61 1018.4
20260901154217 92 156 2.0 4.0 0.00 0.00 0.00 61 1018.4
20260901154203 92 163 2.0 4.0 0.00 0.00 0.00 60 1018.4
20260901154103 92 185 1.0 4.0 0.00 0.00 0.00 60 1018.5
20260901154016 92 242 1.0 4.0 0.00 0.00 0.00 60 1018.5
20260901153903 92 299 1.0 4.0 0.00 0.00 0.00 60 1018.5
20260901153703 92 297 1.0 4.0 0.00 0.00 0.00 60 1018.5
20260901153603 92 275 1.0 4.0 0.00 0.00 0.00 61 1018.5
20260901153504 92 249 1.0 4.0 0.00 0.00 0.00 61 1018.5
20260901153403 92 230 1.0 4.0 0.00 0.00 0.00 61 1018.5
20260901153304 92 220 1.0 3.0 0.00 0.00 0.00 61 1018.5
20260901153203 92 202 1.0 3.0 0.00 0.00 0.00 63 1018.5
20260901153103 92 209 1.0 3.0 0.00 0.00 0.00 63 1018.5
20260901153003 92 216 1.0 3.0 0.00 0.00 0.00 63 1018.6
20260901152903 92 220 1.0 3.0 0.00 0.00 0.00 63 1018.6
20260901152803 92 225 1.0 3.0 0.00 0.00 0.00 63 1018.6
20260901152703 92 234 1.0 3.0 0.00 0.00 0.00 63 1018.6
20260901152617 92 256 1.0 3.0 0.00 0.00 0.00 64 1018.6
20260901152604 92 261 1.0 3.0 0.00 0.00 0.00 64 1018.6
20260901152504 92 298 0.0 2.0 0.00 0.00 0.00 65 1018.5
20260901152306 91 292 0.0 2.0 0.00 0.00 0.00 64 1018.5
20260901152203 91 288 0.0 2.0 0.00 0.00 0.00 64 1018.6
20260901152103 91 266 0.0 2.0 0.00 0.00 0.00 66 1018.6
20260901152003 91 261 0.0 2.0 0.00 0.00 0.00 65 1018.6
20260901151903 91 259 0.0 2.0 0.00 0.00 0.00 64 1018.6
20260901151817 91 258 1.0 2.0 0.00 0.00 0.00 64 1018.6
20260901151804 91 257 1.0 2.0 0.00 0.00 0.00 64 1018.6
20260901151703 91 255 1.0 2.0 0.00 0.00 0.00 64 1018.6
20260901151503 91 254 0.0 2.0 0.00 0.00 0.00 64 1018.6
20260901151403 91 251 0.0 2.0 0.00 0.00 0.00 66 1018.6
20260901151304 91 249 0.0 2.0 0.00 0.00 0.00 66 1018.6
20260901151203 91 251 0.0 2.0 0.00 0.00 0.00 67 1018.5
20260901151103 90 256 0.0 2.0 0.00 0.00 0.00 67 1018.5
20260901151003 90 258 0.0 2.0 0.00 0.00 0.00 68 1018.6
20260901150903 90 263 1.0 2.0 0.00 0.00 0.00 67 1018.6
20260901150803 90 269 1.0 2.0 0.00 0.00 0.00 67 1018.6
20260901150703 90 272 1.0 2.0 0.00 0.00 0.00 67 1018.6
20260901150603 90 274 1.0 2.0 0.00 0.00 0.00 66 1018.6
20260901150503 90 276 1.0 2.0 0.00 0.00 0.00 67 1018.6
20260901150418 90 278 1.0 2.0 0.00 0.00 0.00 67 1018.6
20260901150403 90 280 1.0 2.0 0.00 0.00 0.00 67 1018.6
20260901150304 90 284 1.0 2.0 0.00 0.00 0.00 68 1018.6
20260901150103 90 298 1.0 2.0 0.00 0.00 0.00 67 1018.7
20260901150003 90 310 1.0 2.0 0.00 0.00 0.00 68 1018.6
20260901145903 90 325 1.0 2.0 0.00 0.00 0.00 68 1018.7
20260901145805 90 341 1.0 2.0 0.00 0.00 0.00 68 1018.7
20260901145703 90 349 1.0 2.0 0.00 0.00 0.00 69 1018.7
20260901145603 90 357 1.0 2.0 0.00 0.00 0.00 68 1018.7
20260901145503 89 6 1.0 2.0 0.00 0.00 0.00 67 1018.6
20260901145403 89 7 1.0 2.0 0.00 0.00 0.00 67 1018.7
20260901145306 89 15 1.0 2.0 0.00 0.00 0.00 69 1018.7
20260901145104 89 15 1.0 2.0 0.00 0.00 0.00 69 1018.7
20260901145003 89 15 0.0 2.0 0.00 0.00 0.00 71 1018.7
20260901144904 89 15 0.0 2.0 0.00 0.00 0.00 69 1018.7
20260901144803 89 15 0.0 2.0 0.00 0.00 0.00 69 1018.7
20260901144703 89 14 0.0 2.0 0.00 0.00 0.00 68 1018.7
20260901144603 89 13 0.0 2.0 0.00 0.00 0.00 69 1018.7
20260901144517 89 13 0.0 2.0 0.00 0.00 0.00 69 1018.7
20260901144418 89 13 0.0 2.0 0.00 0.00 0.00 69 1018.7
20260901144404 89 12 0.0 2.0 0.00 0.00 0.00 69 1018.7
20260901144217 88 12 0.0 2.0 0.00 0.00 0.00 70 1018.7
20260901144104 88 11 0.0 2.0 0.00 0.00 0.00 70 1018.6
20260901143903 88 11 0.0 2.0 0.00 0.00 0.00 70 1018.6
20260901143817 88 11 0.0 2.0 0.00 0.00 0.00 71 1018.6
20260901143804 88 11 0.0 2.0 0.00 0.00 0.00 72 1018.6
20260901143704 88 11 0.0 2.0 0.00 0.00 0.00 73 1018.6
20260901143503 87 11 0.0 2.0 0.00 0.00 0.00 73 1018.7
20260901143403 87 11 0.0 2.0 0.00 0.00 0.00 74 1018.6
20260901143303 87 11 0.0 1.0 0.00 0.00 0.00 74 1018.6
20260901143203 87 11 0.0 1.0 0.00 0.00 0.00 75 1018.6
20260901143103 86 11 0.0 1.0 0.00 0.00 0.00 75 1018.6
20260901143003 86 11 0.0 1.0 0.00 0.00 0.00 74 1018.6
20260901142903 86 11 0.0 1.0 0.00 0.00 0.00 74 1018.6
20260901142819 86 11 0.0 1.0 0.00 0.00 0.00 74 1018.6
20260901142803 86 11 0.0 1.0 0.00 0.00 0.00 74 1018.7
20260901142703 86 11 0.0 2.0 0.00 0.00 0.00 74 1018.7
20260901142503 86 11 0.0 2.0 0.00 0.00 0.00 74 1018.7
20260901142404 86 11 0.0 2.0 0.00 0.00 0.00 75 1018.7
20260901142305 86 11 0.0 2.0 0.00 0.00 0.00 76 1018.7
20260901142204 86 11 0.0 2.0 0.00 0.00 0.00 76 1018.7
20260901142104 85 11 0.0 2.0 0.00 0.00 0.00 76 1018.7
20260901142003 85 11 0.0 2.0 0.00 0.00 0.00 76 1018.7
20260901141903 85 11 0.0 2.0 0.00 0.00 0.00 76 1018.7
20260901141718 85 11 0.0 2.0 0.00 0.00 0.00 77 1018.7
20260901141603 85 11 0.0 2.0 0.00 0.00 0.00 77 1018.7
20260901141403 85 11 0.0 2.0 0.00 0.00 0.00 77 1018.7
20260901141303 85 11 0.0 2.0 0.00 0.00 0.00 77 1018.8
20260901141203 85 11 1.0 2.0 0.00 0.00 0.00 77 1018.8
20260901141103 85 11 1.0 2.0 0.00 0.00 0.00 77 1018.8
20260901140916 84 11 1.0 2.0 0.00 0.00 0.00 77 1018.7
20260901140903 84 11 1.0 2.0 0.00 0.00 0.00 78 1018.7
20260901140803 84 11 1.0 2.0 0.00 0.00 0.00 78 1018.8
20260901140604 84 11 1.0 2.0 0.00 0.00 0.00 78 1018.8
20260901140503 84 11 1.0 2.0 0.00 0.00 0.00 77 1018.8
20260901140403 84 11 1.0 2.0 0.00 0.00 0.00 77 1018.8
20260901140303 84 11 1.0 2.0 0.00 0.00 0.00 79 1018.8
20260901140104 83 11 1.0 2.0 0.00 0.00 0.00 79 1018.8
20260901140003 83 11 1.0 2.0 0.00 0.00 0.00 79 1018.9
20260901135903 83 11 1.0 2.0 0.00 0.00 0.00 79 1018.9
20260901135603 83 11 1.0 2.0 0.00 0.00 0.00 81 1018.9
20260901135503 83 11 1.0 2.0 0.00 0.00 0.00 81 1018.8
20260901135403 82 11 1.0 2.0 0.00 0.00 0.00 81 1018.8
20260901135305 82 11 1.0 2.0 0.00 0.00 0.00 81 1018.8
20260901135203 82 11 1.0 2.0 0.00 0.00 0.00 81 1018.8
20260901135004 82 11 1.0 2.0 0.00 0.00 0.00 81 1018.8
20260901134903 82 11 1.0 2.0 0.00 0.00 0.00 81 1018.8
20260901134804 82 11 1.0 2.0 0.00 0.00 0.00 82 1018.8
20260901134618 82 11 1.0 3.0 0.00 0.00 0.00 83 1018.8
20260901134603 82 11 1.0 3.0 0.00 0.00 0.00 82 1018.8
20260901134503 81 10 1.0 3.0 0.00 0.00 0.00 82 1018.8
20260901134417 81 10 1.0 3.0 0.00 0.00 0.00 82 1018.8
20260901134304 81 10 1.0 3.0 0.00 0.00 0.00 82 1018.8
20260901134104 81 9 1.0 3.0 0.00 0.00 0.00 83 1018.8
20260901134017 81 8 1.0 3.0 0.00 0.00 0.00 83 1018.8
20260901134003 80 8 1.0 3.0 0.00 0.00 0.00 84 1018.8
20260901133904 80 1 0.0 3.0 0.00 0.00 0.00 84 1018.8
20260901133717 80 195 0.0 3.0 0.00 0.00 0.00 85 1018.8
20260901133704 80 193 0.0 3.0 0.00 0.00 0.00 85 1018.8
20260901133604 80 192 0.0 2.0 0.00 0.00 0.00 86 1018.8
20260901133403 79 192 0.0 2.0 0.00 0.00 0.00 86 1018.9
20260901133304 79 192 0.0 2.0 0.00 0.00 0.00 86 1018.9
20260901133203 79 192 0.0 2.0 0.00 0.00 0.00 86 1018.9
20260901133003 79 192 0.0 2.0 0.00 0.00 0.00 86 1018.9
20260901132903 79 192 1.0 2.0 0.00 0.00 0.00 86 1018.8
20260901132803 79 192 1.0 2.0 0.00 0.00 0.00 86 1018.8
20260901132703 79 192 1.0 2.0 0.00 0.00 0.00 86 1018.9
20260901132604 79 192 1.0 2.0 0.00 0.00 0.00 87 1018.8
20260901132503 78 192 1.0 2.0 0.00 0.00 0.00 86 1018.8
20260901132403 78 192 1.0 2.0 0.00 0.00 0.00 87 1018.8
20260901132306 78 192 1.0 2.0 0.00 0.00 0.00 87 1018.8
20260901132203 78 192 1.0 2.0 0.00 0.00 0.00 87 1018.9
20260901132117 78 192 1.0 2.0 0.00 0.00 0.00 88 1018.9
20260901131918 77 192 1.0 2.0 0.00 0.00 0.00 88 1018.8
20260901131803 77 192 1.0 2.0 0.00 0.00 0.00 89 1018.8
20260901131604 77 192 0.0 2.0 0.00 0.00 0.00 89 1018.8
20260901131504 77 192 0.0 2.0 0.00 0.00 0.00 89 1018.8
20260901131404 76 192 0.0 2.0 0.00 0.00 0.00 89 1018.8
20260901131303 76 192 0.0 2.0 0.00 0.00 0.00 90 1018.8
20260901131203 76 192 0.0 2.0 0.00 0.00 0.00 90 1018.8
20260901131103 76 192 0.0 2.0 0.00 0.00 0.00 90 1018.8
20260901131003 76 192 0.0 2.0 0.00 0.00 0.00 91 1018.8
20260901130903 76 192 0.0 2.0 0.00 0.00 0.00 91 1018.8
20260901130804 76 0 0.0 0.0 0.00 0.00 0.00 91 1018.8
20260901130704 75 0 0.0 0.0 0.00 0.00 0.00 92 1018.8
20260901130604 75 0 0.0 0.0 0.00 0.00 0.00 92 1018.7
20260901130409 75 0 0.0 0.0 0.00 0.00 0.00 93 1018.8
20260901130303 75 0 0.0 0.0 0.00 0.00 0.00 93 1018.7
20260901130204 75 0 0.0 0.0 0.00 0.00 0.00 93 1018.7
20260901130004 75 0 0.0 0.0 0.00 0.00 0.00 93 1018.7
20260901125918 74 0 0.0 0.0 0.00 0.00 0.00 93 1018.7
20260901125903 74 0 0.0 0.0 0.00 0.00 0.00 94 1018.7
20260901125803 74 0 0.0 0.0 0.00 0.00 0.00 94 1018.6
20260901125603 74 0 0.0 0.0 0.00 0.00 0.00 94 1018.7
20260901125516 74 0 0.0 0.0 0.00 0.00 0.00 94 1018.7
20260901125503 74 0 0.0 0.0 0.00 0.00 0.00 94 1018.5
20260901125404 74 0 0.0 0.0 0.00 0.00 0.00 94 1018.5
20260901125203 74 0 0.0 0.0 0.00 0.00 0.00 94 1018.5
20260901125104 74 0 0.0 0.0 0.00 0.00 0.00 94 1018.6
20260901125004 74 0 0.0 0.0 0.00 0.00 0.00 94 1018.5
20260901124804 73 0 0.0 0.0 0.00 0.00 0.00 94 1018.5
20260901124703 73 0 0.0 0.0 0.00 0.00 0.00 94 1018.5
20260901124603 73 0 0.0 0.0 0.00 0.00 0.00 94 1018.5
20260901124503 73 0 0.0 0.0 0.00 0.00 0.00 95 1018.5
20260901124304 73 0 0.0 0.0 0.00 0.00 0.00 95 1018.5
20260901124203 73 0 0.0 0.0 0.00 0.00 0.00 95 1018.5
20260901124103 73 0 0.0 0.0 0.00 0.00 0.00 95 1018.5
20260901124003 73 0 0.0 0.0 0.00 0.00 0.00 95 1018.5
20260901123903 73 0 0.0 0.0 0.00 0.00 0.00 95 1018.5
20260901123803 72 0 0.0 0.0 0.00 0.00 0.00 95 1018.5
20260901123704 72 0 0.0 0.0 0.00 0.00 0.00 95 1018.5
20260901123604 72 0 0.0 0.0 0.00 0.00 0.00 95 1018.5
20260901123503 72 0 0.0 0.0 0.00 0.00 0.00 95 1018.4
20260901123403 72 0 0.0 0.0 0.00 0.00 0.00 95 1018.4
20260901123303 72 0 0.0 0.0 0.00 0.00 0.00 95 1018.5
20260901123203 72 0 0.0 0.0 0.00 0.00 0.00 95 1018.5
20260901123103 72 0 0.0 0.0 0.00 0.00 0.00 95 1018.5
20260901122903 72 0 0.0 0.0 0.00 0.00 0.00 95 1018.4
20260901122804 72 0 0.0 0.0 0.00 0.00 0.00 95 1018.5
20260901122704 72 0 0.0 0.0 0.00 0.00 0.00 95 1018.4
20260901122603 72 0 0.0 0.0 0.00 0.00 0.00 95 1018.4
20260901122403 71 0 0.0 0.0 0.00 0.00 0.00 95 1018.4
20260901122306 71 0 0.0 0.0 0.00 0.00 0.00 95 1018.4
20260901122103 71 0 0.0 0.0 0.00 0.00 0.00 95 1018.4
20260901122003 71 0 0.0 0.0 0.00 0.00 0.00 95 1018.3
20260901121904 71 0 0.0 0.0 0.00 0.00 0.00 95 1018.3
20260901121804 71 0 0.0 0.0 0.00 0.00 0.00 94 1018.3
20260901121603 71 0 0.0 0.0 0.00 0.00 0.00 94 1018.3
20260901121504 71 0 0.0 0.0 0.00 0.00 0.00 94 1018.3
20260901121403 71 0 0.0 0.0 0.00 0.00 0.00 94 1018.3
20260901121303 71 0 0.0 0.0 0.00 0.00 0.00 94 1018.3
20260901121218 71 0 0.0 0.0 0.00 0.00 0.00 94 1018.3
20260901121203 70 0 0.0 0.0 0.00 0.00 0.00 94 1018.3
20260901121103 70 0 0.0 0.0 0.00 0.00 0.00 94 1018.3
20260901121019 70 0 0.0 0.0 0.00 0.00 0.00 94 1018.3
20260901120904 70 0 0.0 0.0 0.00 0.00 0.00 94 1018.2
20260901120704 70 192 0.0 1.0 0.00 0.00 0.00 94 1018.2
20260901120604 70 192 0.0 1.0 0.00 0.00 0.00 94 1018.2
20260901120503 70 192 0.0 1.0 0.00 0.00 0.00 94 1018.3
20260901120403 70 192 0.0 1.0 0.00 0.00 0.00 94 1018.2
20260901120303 70 192 0.0 1.0 0.00 0.00 0.00 94 1018.2
20260901120218 70 192 0.0 1.0 0.00 0.00 0.00 94 1018.2
20260901115903 70 192 0.0 1.0 0.00 0.00 0.00 93 1018.1
20260901115803 70 0 0.0 0.0 0.00 0.00 0.00 93 1018.1
20260901115703 70 0 0.0 0.0 0.00 0.00 0.00 93 1018.1
20260901115503 70 0 0.0 0.0 0.00 0.00 0.00 93 1018.0
20260901115404 70 0 0.0 0.0 0.00 0.00 0.00 93 1018.0
20260901115306 70 0 0.0 0.0 0.00 0.00 0.00 93 1018.0
20260901115218 70 0 0.0 0.0 0.00 0.00 0.00 93 1018.0
20260901115103 70 206 0.0 1.0 0.00 0.00 0.00 93 1017.9
20260901114904 70 206 0.0 1.0 0.00 0.00 0.00 93 1017.9
20260901114803 70 206 0.0 1.0 0.00 0.00 0.00 93 1017.9
20260901114603 70 206 0.0 1.0 0.00 0.00 0.00 93 1017.8
20260901114504 70 206 0.0 1.0 0.00 0.00 0.00 93 1017.8
20260901114404 70 206 0.0 1.0 0.00 0.00 0.00 93 1017.8
20260901114304 70 206 0.0 1.0 0.00 0.00 0.00 93 1017.8
20260901114204 70 206 0.0 1.0 0.00 0.00 0.00 93 1017.8
20260901114103 70 0 0.0 0.0 0.00 0.00 0.00 93 1017.8
20260901114003 70 0 0.0 0.0 0.00 0.00 0.00 93 1017.8
20260901113903 70 0 0.0 0.0 0.00 0.00 0.00 93 1017.8
20260901113818 70 0 0.0 0.0 0.00 0.00 0.00 93 1017.8
20260901113804 70 0 0.0 0.0 0.00 0.00 0.00 93 1017.7
20260901113703 70 0 0.0 0.0 0.00 0.00 0.00 93 1017.7
20260901113504 70 0 0.0 0.0 0.00 0.00 0.00 93 1017.7
20260901113403 70 0 0.0 0.0 0.00 0.00 0.00 93 1017.7
20260901113304 70 0 0.0 0.0 0.00 0.00 0.00 93 1017.7
20260901113103 70 0 0.0 0.0 0.00 0.00 0.00 93 1017.6
20260901113003 70 0 0.0 0.0 0.00 0.00 0.00 93 1017.6
20260901112903 70 0 0.0 0.0 0.00 0.00 0.00 93 1017.6
20260901112804 70 0 0.0 0.0 0.00 0.00 0.00 93 1017.6
20260901112703 70 0 0.0 0.0 0.00 0.00 0.00 93 1017.6
20260901112603 70 0 0.0 0.0 0.00 0.00 0.00 93 1017.5
20260901112504 70 0 0.0 0.0 0.00 0.00 0.00 93 1017.5
20260901112404 70 0 0.0 0.0 0.00 0.00 0.00 93 1017.5
20260901112306 70 0 0.0 0.0 0.00 0.00 0.00 93 1017.5
20260901112203 70 0 0.0 0.0 0.00 0.00 0.00 93 1017.5
20260901112103 70 0 0.0 0.0 0.00 0.00 0.00 93 1017.5
20260901112004 70 0 0.0 0.0 0.00 0.00 0.00 93 1017.4
20260901111803 70 0 0.0 0.0 0.00 0.00 0.00 93 1017.4
20260901111703 70 0 0.0 0.0 0.00 0.00 0.00 92 1017.4
20260901111603 70 0 0.0 0.0 0.00 0.00 0.00 93 1017.4
20260901111503 70 0 0.0 0.0 0.00 0.00 0.00 93 1017.4
20260901111403 70 0 0.0 0.0 0.00 0.00 0.00 93 1017.4
20260901111203 70 0 0.0 0.0 0.00 0.00 0.00 93 1017.4
20260901111104 70 0 0.0 0.0 0.00 0.00 0.00 93 1017.4
20260901111004 70 0 0.0 0.0 0.00 0.00 0.00 93 1017.4
20260901110903 70 0 0.0 0.0 0.00 0.00 0.00 93 1017.4
20260901110803 70 0 0.0 0.0 0.00 0.00 0.00 93 1017.4
20260901110703 70 0 0.0 0.0 0.00 0.00 0.00 93 1017.4
20260901110603 70 0 0.0 0.0 0.00 0.00 0.00 92 1017.4
20260901110503 70 0 0.0 0.0 0.00 0.00 0.00 93 1017.3
20260901110403 70 0 0.0 0.0 0.00 0.00 0.00 93 1017.3
20260901110303 70 0 0.0 0.0 0.00 0.00 0.00 92 1017.3
20260901110204 70 0 0.0 0.0 0.00 0.00 0.00 93 1017.3
20260901110103 70 0 0.0 0.0 0.00 0.00 0.00 92 1017.3
20260901110003 70 0 0.0 0.0 0.00 0.00 0.00 92 1017.3
20260901105903 70 0 0.0 0.0 0.00 0.00 0.00 92 1017.3
20260901105803 70 0 0.0 0.0 0.00 0.00 0.00 93 1017.3
20260901105704 70 0 0.0 0.0 0.00 0.00 0.00 92 1017.3
20260901105603 70 0 0.0 0.0 0.00 0.00 0.00 92 1017.3
20260901105503 70 0 0.0 0.0 0.00 0.00 0.00 92 1017.2
20260901105203 70 0 0.0 0.0 0.00 0.00 0.00 93 1017.2
20260901105103 70 0 0.0 0.0 0.00 0.00 0.00 93 1017.2
20260901105003 70 0 0.0 0.0 0.00 0.00 0.00 92 1017.2
20260901104904 70 0 0.0 0.0 0.00 0.00 0.00 92 1017.2
20260901104803 70 0 0.0 0.0 0.00 0.00 0.00 92 1017.2
20260901104704 70 0 0.0 0.0 0.00 0.00 0.00 93 1017.1
20260901104504 70 0 0.0 0.0 0.00 0.00 0.00 92 1017.2
20260901104404 70 0 0.0 0.0 0.00 0.00 0.00 92 1017.1
20260901104303 70 0 0.0 0.0 0.00 0.00 0.00 92 1017.1
20260901104204 70 0 0.0 0.0 0.00 0.00 0.00 92 1017.1
20260901104118 70 0 0.0 0.0 0.00 0.00 0.00 92 1017.1
20260901104103 70 0 0.0 0.0 0.00 0.00 0.00 92 1017.2
20260901104004 70 0 0.0 0.0 0.00 0.00 0.00 92 1017.2
20260901103804 70 0 0.0 0.0 0.00 0.00 0.00 92 1017.2
20260901103703 70 0 0.0 0.0 0.00 0.00 0.00 92 1017.1
20260901103603 70 0 0.0 0.0 0.00 0.00 0.00 92 1017.1
20260901103504 70 0 0.0 0.0 0.00 0.00 0.00 92 1017.1
20260901103403 70 0 0.0 0.0 0.00 0.00 0.00 92 1017.1
20260901103303 71 0 0.0 0.0 0.00 0.00 0.00 93 1017.1
20260901103103 70 0 0.0 0.0 0.00 0.00 0.00 93 1017.1
20260901103003 71 0 0.0 0.0 0.00 0.00 0.00 93 1017.1
20260901102919 71 0 0.0 0.0 0.00 0.00 0.00 93 1017.2
20260901102718 70 0 0.0 0.0 0.00 0.00 0.00 93 1017.1
20260901102603 71 0 0.0 0.0 0.00 0.00 0.00 92 1017.1
20260901102404 71 0 0.0 0.0 0.00 0.00 0.00 92 1017.1
20260901102306 71 0 0.0 0.0 0.00 0.00 0.00 92 1017.1
20260901102104 71 0 0.0 0.0 0.00 0.00 0.00 92 1017.1
20260901102003 71 0 0.0 0.0 0.00 0.00 0.00 93 1017.1
20260901101904 71 0 0.0 0.0 0.00 0.00 0.00 93 1017.1
20260901101803 71 0 0.0 0.0 0.00 0.00 0.00 93 1017.1
20260901101703 71 0 0.0 0.0 0.00 0.00 0.00 93 1017.1
20260901101603 71 0 0.0 0.0 0.00 0.00 0.00 93 1017.0
20260901101503 71 0 0.0 0.0 0.00 0.00 0.00 93 1017.0
20260901101403 71 0 0.0 0.0 0.00 0.00 0.00 93 1017.0
20260901101303 71 0 0.0 0.0 0.00 0.00 0.00 93 1017.0
20260901101203 71 0 0.0 0.0 0.00 0.00 0.00 93 1017.0
20260901101118 71 0 0.0 0.0 0.00 0.00 0.00 93 1017.1
20260901101003 71 0 0.0 0.0 0.00 0.00 0.00 93 1017.1
20260901100703 71 0 0.0 0.0 0.00 0.00 0.00 92 1017.1
20260901100603 71 0 0.0 0.0 0.00 0.00 0.00 92 1017.0
20260901100503 71 0 0.0 0.0 0.00 0.00 0.00 92 1017.0
20260901100403 71 0 0.0 0.0 0.00 0.00 0.00 92 1017.0
20260901100303 71 0 0.0 0.0 0.00 0.00 0.00 92 1017.0
20260901100103 71 0 0.0 0.0 0.00 0.00 0.00 92 1017.0
20260901100004 71 0 0.0 0.0 0.00 0.00 0.00 92 1017.0
20260901095903 71 0 0.0 0.0 0.00 0.00 0.00 92 1017.0
20260901095803 71 0 0.0 0.0 0.00 0.00 0.00 92 1017.0
20260901095703 71 0 0.0 0.0 0.00 0.00 0.00 92 1017.0
20260901095603 71 0 0.0 0.0 0.00 0.00 0.00 92 1016.9
20260901095403 71 0 0.0 0.0 0.00 0.00 0.00 92 1017.0
20260901095306 71 0 0.0 0.0 0.00 0.00 0.00 92 1017.0
20260901095204 71 0 0.0 0.0 0.00 0.00 0.00 92 1016.9
20260901095103 71 0 0.0 0.0 0.00 0.00 0.00 92 1016.9
20260901095003 71 0 0.0 0.0 0.00 0.00 0.00 92 1016.9
20260901094904 71 0 0.0 0.0 0.00 0.00 0.00 92 1016.9
20260901094803 71 0 0.0 0.0 0.00 0.00 0.00 92 1016.9
20260901094703 71 0 0.0 0.0 0.00 0.00 0.00 92 1016.9
20260901094603 71 0 0.0 0.0 0.00 0.00 0.00 92 1016.9
20260901094503 71 0 0.0 0.0 0.00 0.00 0.00 92 1016.9
20260901094304 71 0 0.0 0.0 0.00 0.00 0.00 92 1016.9
20260901094203 71 0 0.0 0.0 0.00 0.00 0.00 92 1016.8
20260901094103 71 0 0.0 0.0 0.00 0.00 0.00 92 1016.8
20260901094003 71 0 0.0 0.0 0.00 0.00 0.00 92 1016.8
20260901093903 71 0 0.0 0.0 0.00 0.00 0.00 92 1016.8
20260901093703 71 0 0.0 0.0 0.00 0.00 0.00 92 1016.8
20260901093603 71 0 0.0 0.0 0.00 0.00 0.00 92 1016.8
20260901093504 71 0 0.0 0.0 0.00 0.00 0.00 92 1016.8
20260901093303 71 0 0.0 0.0 0.00 0.00 0.00 92 1016.8
20260901093204 71 0 0.0 0.0 0.00 0.00 0.00 92 1016.8
20260901093003 71 0 0.0 0.0 0.00 0.00 0.00 92 1016.8
20260901092903 71 0 0.0 0.0 0.00 0.00 0.00 92 1016.8
20260901092704 71 0 0.0 0.0 0.00 0.00 0.00 92 1016.8
20260901092603 71 0 0.0 0.0 0.00 0.00 0.00 92 1016.7
20260901092503 71 0 0.0 0.0 0.00 0.00 0.00 92 1016.7
20260901092403 71 0 0.0 0.0 0.00 0.00 0.00 92 1016.8
20260901092305 71 0 0.0 0.0 0.00 0.00 0.00 92 1016.7
20260901092203 71 0 0.0 0.0 0.00 0.00 0.00 92 1016.7
20260901092104 71 0 0.0 0.0 0.00 0.00 0.00 92 1016.7
20260901092004 71 0 0.0 0.0 0.00 0.00 0.00 92 1016.7
20260901091903 71 0 0.0 0.0 0.00 0.00 0.00 92 1016.7
20260901091804 71 0 0.0 0.0 0.00 0.00 0.00 92 1016.8
20260901091703 71 0 0.0 0.0 0.00 0.00 0.00 92 1016.8
20260901091604 71 0 0.0 0.0 0.00 0.00 0.00 92 1016.7
20260901091504 71 0 0.0 0.0 0.00 0.00 0.00 92 1016.7
20260901091403 71 0 0.0 0.0 0.00 0.00 0.00 92 1016.7
20260901091304 71 0 0.0 0.0 0.00 0.00 0.00 92 1016.7
20260901091203 71 0 0.0 0.0 0.00 0.00 0.00 92 1016.7
20260901091103 71 0 0.0 0.0 0.00 0.00 0.00 92 1016.7
20260901091003 71 0 0.0 0.0 0.00 0.00 0.00 92 1016.7
20260901090803 71 0 0.0 0.0 0.00 0.00 0.00 92 1016.7
20260901090704 71 0 0.0 0.0 0.00 0.00 0.00 92 1016.7
20260901090603 71 0 0.0 0.0 0.00 0.00 0.00 92 1016.7
20260901090503 71 0 0.0 0.0 0.00 0.00 0.00 92 1016.7
20260901090404 71 0 0.0 0.0 0.00 0.00 0.00 92 1016.7
20260901090303 71 0 0.0 0.0 0.00 0.00 0.00 92 1016.7
20260901090203 71 0 0.0 0.0 0.00 0.00 0.00 92 1016.7
20260901090104 71 0 0.0 0.0 0.00 0.00 0.00 92 1016.8
20260901085903 71 0 0.0 0.0 0.00 0.00 0.00 92 1016.8
20260901085803 71 0 0.0 0.0 0.00 0.00 0.00 92 1016.8
20260901085703 71 0 0.0 0.0 0.00 0.00 0.00 92 1016.8
20260901085603 71 0 0.0 0.0 0.00 0.00 0.00 92 1016.8
20260901085504 71 0 0.0 0.0 0.00 0.00 0.00 92 1016.8
20260901085403 71 0 0.0 0.0 0.00 0.00 0.00 92 1016.8
20260901085306 71 0 0.0 0.0 0.00 0.00 0.00 92 1016.8
20260901085203 71 0 0.0 0.0 0.00 0.00 0.00 92 1016.8
20260901085103 71 0 0.0 0.0 0.00 0.00 0.00 92 1016.9
20260901085004 71 0 0.0 0.0 0.00 0.00 0.00 92 1016.9
20260901084903 72 0 0.0 0.0 0.00 0.00 0.00 92 1016.9
20260901084804 72 0 0.0 0.0 0.00 0.00 0.00 92 1016.8
20260901084704 72 0 0.0 0.0 0.00 0.00 0.00 92 1016.8
20260901084603 72 0 0.0 0.0 0.00 0.00 0.00 92 1016.8
20260901084504 72 0 0.0 0.0 0.00 0.00 0.00 92 1016.8
20260901084403 72 0 0.0 0.0 0.00 0.00 0.00 92 1016.8
20260901084303 72 0 0.0 0.0 0.00 0.00 0.00 92 1016.9
20260901084203 72 0 0.0 0.0 0.00 0.00 0.00 92 1016.9
20260901084103 72 0 0.0 0.0 0.00 0.00 0.00 92 1016.9
20260901084003 72 0 0.0 0.0 0.00 0.00 0.00 92 1016.8
20260901083903 72 0 0.0 0.0 0.00 0.00 0.00 92 1016.8
20260901083803 72 0 0.0 0.0 0.00 0.00 0.00 92 1016.8
20260901083718 72 0 0.0 0.0 0.00 0.00 0.00 92 1016.8
20260901083603 72 0 0.0 0.0 0.00 0.00 0.00 92 1016.8
20260901083517 72 0 0.0 0.0 0.00 0.00 0.00 92 1016.7
20260901083403 72 0 0.0 0.0 0.00 0.00 0.00 92 1016.7
20260901083203 72 0 0.0 0.0 0.00 0.00 0.00 91 1016.8
20260901083104 72 0 0.0 0.0 0.00 0.00 0.00 91 1016.8
20260901083003 72 0 0.0 0.0 0.00 0.00 0.00 91 1016.7
20260901082903 72 0 0.0 0.0 0.00 0.00 0.00 91 1016.7
20260901082704 72 0 0.0 0.0 0.00 0.00 0.00 91 1016.7
20260901082603 72 0 0.0 0.0 0.00 0.00 0.00 91 1016.7
20260901082403 72 0 0.0 0.0 0.00 0.00 0.00 91 1016.7
20260901082306 72 0 0.0 0.0 0.00 0.00 0.00 91 1016.7
20260901082204 72 0 0.0 0.0 0.00 0.00 0.00 91 1016.6
20260901082103 72 0 0.0 0.0 0.00 0.00 0.00 91 1016.6
20260901081904 72 0 0.0 0.0 0.00 0.00 0.00 91 1016.6
20260901081804 72 0 0.0 0.0 0.00 0.00 0.00 91 1016.6
20260901081704 72 0 0.0 0.0 0.00 0.00 0.00 91 1016.6
20260901081603 72 0 0.0 0.0 0.00 0.00 0.00 91 1016.5
20260901081504 72 0 0.0 0.0 0.00 0.00 0.00 91 1016.5
20260901081403 72 0 0.0 0.0 0.00 0.00 0.00 91 1016.5
20260901081304 72 0 0.0 0.0 0.00 0.00 0.00 91 1016.5
20260901081203 72 0 0.0 0.0 0.00 0.00 0.00 91 1016.5
20260901081103 72 0 0.0 0.0 0.00 0.00 0.00 91 1016.5
20260901081004 72 0 0.0 0.0 0.00 0.00 0.00 91 1016.5
20260901080903 72 0 0.0 0.0 0.00 0.00 0.00 91 1016.5
20260901080803 72 0 0.0 0.0 0.00 0.00 0.00 91 1016.5
20260901080703 72 0 0.0 0.0 0.00 0.00 0.00 91 1016.5
20260901080604 72 0 0.0 0.0 0.00 0.00 0.00 91 1016.6
20260901080504 72 0 0.0 0.0 0.00 0.00 0.00 91 1016.6
20260901080404 72 0 0.0 0.0 0.00 0.00 0.00 91 1016.5
20260901080304 72 0 0.0 0.0 0.00 0.00 0.00 91 1016.5
20260901080204 72 0 0.0 0.0 0.00 0.00 0.00 91 1016.5
20260901080104 72 0 0.0 0.0 0.00 0.00 0.00 91 1016.5
20260901080003 72 0 0.0 0.0 0.00 0.00 0.00 91 1016.5
20260901075804 72 0 0.0 0.0 0.00 0.00 0.00 91 1016.6
20260901075704 72 0 0.0 0.0 0.00 0.00 0.00 91 1016.6
20260901075604 72 0 0.0 0.0 0.00 0.00 0.00 91 1016.5
20260901075503 72 0 0.0 0.0 0.00 0.00 0.00 91 1016.5
20260901075403 72 0 0.0 0.0 0.00 0.00 0.00 91 1016.5
20260901075307 72 0 0.0 0.0 0.00 0.00 0.00 91 1016.5
20260901075204 72 0 0.0 0.0 0.00 0.00 0.00 91 1016.5
20260901075103 72 0 0.0 0.0 0.00 0.00 0.00 91 1016.5
20260901075003 72 0 0.0 0.0 0.00 0.00 0.00 91 1016.5
20260901074903 72 0 0.0 0.0 0.00 0.00 0.00 91 1016.5
20260901074803 72 0 0.0 0.0 0.00 0.00 0.00 90 1016.5
20260901074703 72 0 0.0 0.0 0.00 0.00 0.00 90 1016.5
20260901074603 72 0 0.0 0.0 0.00 0.00 0.00 90 1016.5
20260901074503 72 0 0.0 0.0 0.00 0.00 0.00 90 1016.4
20260901074403 72 0 0.0 0.0 0.00 0.00 0.00 90 1016.4
20260901074304 72 0 0.0 0.0 0.00 0.00 0.00 90 1016.5
20260901074103 72 0 0.0 0.0 0.00 0.00 0.00 90 1016.5
20260901074017 72 0 0.0 0.0 0.00 0.00 0.00 90 1016.5
20260901074004 72 0 0.0 0.0 0.00 0.00 0.00 90 1016.4
20260901073904 72 0 0.0 0.0 0.00 0.00 0.00 90 1016.4
20260901073817 72 0 0.0 0.0 0.00 0.00 0.00 90 1016.4
20260901073704 72 0 0.0 0.0 0.00 0.00 0.00 90 1016.4
20260901073618 72 0 0.0 0.0 0.00 0.00 0.00 90 1016.4
20260901073503 72 0 0.0 0.0 0.00 0.00 0.00 90 1016.5
20260901073304 72 0 0.0 0.0 0.00 0.00 0.00 90 1016.5
20260901073203 72 0 0.0 0.0 0.00 0.00 0.00 90 1016.5
20260901073003 72 0 0.0 0.0 0.00 0.00 0.00 90 1016.5
20260901072903 72 0 0.0 0.0 0.00 0.00 0.00 90 1016.5
20260901072804 72 0 0.0 0.0 0.00 0.00 0.00 90 1016.5
20260901072717 72 0 0.0 0.0 0.00 0.00 0.00 90 1016.5
20260901072704 72 0 0.0 0.0 0.00 0.00 0.00 90 1016.6
20260901072604 72 0 0.0 0.0 0.00 0.00 0.00 90 1016.6
20260901072309 73 0 0.0 0.0 0.00 0.00 0.00 90 1016.6
20260901072204 73 0 0.0 0.0 0.00 0.00 0.00 90 1016.5
20260901072104 73 0 0.0 0.0 0.00 0.00 0.00 90 1016.5
20260901072005 73 0 0.0 0.0 0.00 0.00 0.00 90 1016.5
20260901071904 73 0 0.0 0.0 0.00 0.00 0.00 90 1016.5
20260901071804 73 0 0.0 0.0 0.00 0.00 0.00 90 1016.5
20260901071703 73 0 0.0 0.0 0.00 0.00 0.00 90 1016.5
20260901071603 73 0 0.0 0.0 0.00 0.00 0.00 90 1016.5
20260901071503 73 0 0.0 0.0 0.00 0.00 0.00 90 1016.5
20260901071403 73 0 0.0 0.0 0.00 0.00 0.00 90 1016.5
20260901071303 73 0 0.0 0.0 0.00 0.00 0.00 90 1016.6
20260901071203 73 0 0.0 0.0 0.00 0.00 0.00 90 1016.6
20260901071104 73 0 0.0 0.0 0.00 0.00 0.00 90 1016.6
20260901071003 73 0 0.0 0.0 0.00 0.00 0.00 90 1016.6
20260901070903 73 0 0.0 0.0 0.00 0.00 0.00 90 1016.6
20260901070803 73 0 0.0 0.0 0.00 0.00 0.00 90 1016.6
20260901070703 73 0 0.0 0.0 0.00 0.00 0.00 90 1016.6
20260901070603 73 0 0.0 0.0 0.00 0.00 0.00 90 1016.6
20260901070404 73 0 0.0 0.0 0.00 0.00 0.00 90 1016.7
20260901070303 73 0 0.0 0.0 0.00 0.00 0.00 90 1016.7
20260901070203 73 0 0.0 0.0 0.00 0.00 0.00 90 1016.6
20260901070003 73 0 0.0 0.0 0.00 0.00 0.00 90 1016.6
20260901065904 73 0 0.0 0.0 0.00 0.00 0.00 90 1016.6
20260901065603 73 0 0.0 0.0 0.00 0.00 0.00 90 1016.7
20260901065503 73 0 0.0 0.0 0.00 0.00 0.00 90 1016.7
20260901065404 73 0 0.0 0.0 0.00 0.00 0.00 90 1016.6
20260901065203 73 0 0.0 0.0 0.00 0.00 0.00 89 1016.7
20260901065104 73 0 0.0 0.0 0.00 0.00 0.00 89 1016.7
20260901065004 73 0 0.0 0.0 0.00 0.00 0.00 89 1016.7
20260901064803 73 0 0.0 0.0 0.00 0.00 0.00 89 1016.6
20260901064703 73 0 0.0 0.0 0.00 0.00 0.00 89 1016.7
20260901064603 73 0 0.0 0.0 0.00 0.00 0.00 89 1016.6
20260901064403 73 0 0.0 0.0 0.00 0.00 0.00 89 1016.7
20260901064303 73 0 0.0 0.0 0.00 0.00 0.00 89 1016.7
20260901064203 73 0 0.0 0.0 0.00 0.00 0.00 89 1016.7
20260901064104 73 0 0.0 0.0 0.00 0.00 0.00 89 1016.7
20260901064004 73 0 0.0 0.0 0.00 0.00 0.00 89 1016.7
20260901063903 73 0 0.0 0.0 0.00 0.00 0.00 89 1016.7
20260901063804 73 0 0.0 0.0 0.00 0.00 0.00 89 1016.7
20260901063603 73 0 0.0 0.0 0.00 0.00 0.00 89 1016.8
20260901063504 73 0 0.0 0.0 0.00 0.00 0.00 89 1016.8
20260901063404 73 0 0.0 0.0 0.00 0.00 0.00 89 1016.8
20260901063303 73 0 0.0 0.0 0.00 0.00 0.00 89 1016.8
20260901063203 73 0 0.0 0.0 0.00 0.00 0.00 89 1016.8
20260901063103 73 0 0.0 0.0 0.00 0.00 0.00 89 1016.8
20260901062904 73 0 0.0 0.0 0.00 0.00 0.00 89 1016.8
20260901062803 73 0 0.0 0.0 0.00 0.00 0.00 89 1016.8
20260901062703 73 0 0.0 0.0 0.00 0.00 0.00 89 1016.8
20260901062604 73 0 0.0 0.0 0.00 0.00 0.00 89 1016.8
20260901062503 73 0 0.0 0.0 0.00 0.00 0.00 89 1016.8
20260901062403 73 0 0.0 0.0 0.00 0.00 0.00 89 1016.8
20260901062309 73 0 0.0 0.0 0.00 0.00 0.00 89 1016.8
20260901062203 73 0 0.0 0.0 0.00 0.00 0.00 89 1016.8
20260901062003 73 0 0.0 0.0 0.00 0.00 0.00 89 1016.8
20260901061903 73 0 0.0 0.0 0.00 0.00 0.00 89 1016.8
20260901061803 73 0 0.0 0.0 0.00 0.00 0.00 89 1016.8
20260901061703 73 0 0.0 0.0 0.00 0.00 0.00 89 1016.8
20260901061603 73 0 0.0 0.0 0.00 0.00 0.00 89 1016.8
20260901061503 73 0 0.0 0.0 0.00 0.00 0.00 89 1016.8
20260901061403 73 0 0.0 0.0 0.00 0.00 0.00 89 1016.8
20260901061303 73 0 0.0 0.0 0.00 0.00 0.00 89 1016.8
20260901061203 73 0 0.0 0.0 0.00 0.00 0.00 89 1016.8
20260901061104 73 0 0.0 0.0 0.00 0.00 0.00 89 1016.8
20260901061004 73 0 0.0 0.0 0.00 0.00 0.00 89 1016.8
20260901060903 73 0 0.0 0.0 0.00 0.00 0.00 89 1016.8
20260901060804 74 0 0.0 0.0 0.00 0.00 0.00 89 1016.8
20260901060703 74 0 0.0 0.0 0.00 0.00 0.00 89 1016.8
20260901060603 74 0 0.0 0.0 0.00 0.00 0.00 89 1016.8
20260901060503 74 0 0.0 0.0 0.00 0.00 0.00 89 1016.8
20260901060403 74 0 0.0 0.0 0.00 0.00 0.00 89 1016.8
20260901060304 74 0 0.0 0.0 0.00 0.00 0.00 89 1016.8
20260901060203 74 0 0.0 0.0 0.00 0.00 0.00 89 1016.8
20260901060003 74 0 0.0 0.0 0.00 0.00 0.00 89 1016.8
20260901055904 74 0 0.0 0.0 0.00 0.00 0.00 89 1016.8
20260901055804 74 0 0.0 0.0 0.00 0.00 0.00 89 1016.8
20260901055604 74 0 0.0 0.0 0.00 0.00 0.00 88 1016.8
20260901055503 74 0 0.0 0.0 0.00 0.00 0.00 88 1016.8
20260901055403 74 0 0.0 0.0 0.00 0.00 0.00 88 1016.8
20260901055306 74 0 0.0 0.0 0.00 0.00 0.00 88 1016.7
20260901055204 74 0 0.0 0.0 0.00 0.00 0.00 88 1016.7
20260901055003 74 0 0.0 0.0 0.00 0.00 0.00 88 1016.7
20260901054904 74 0 0.0 0.0 0.00 0.00 0.00 88 1016.7
20260901054804 74 0 0.0 0.0 0.00 0.00 0.00 88 1016.8
20260901054703 74 0 0.0 0.0 0.00 0.00 0.00 88 1016.7
20260901054604 74 0 0.0 0.0 0.00 0.00 0.00 88 1016.7
20260901054504 74 0 0.0 0.0 0.00 0.00 0.00 88 1016.7
20260901054404 74 0 0.0 0.0 0.00 0.00 0.00 88 1016.7
20260901054303 74 0 0.0 0.0 0.00 0.00 0.00 88 1016.7
20260901054004 74 0 0.0 0.0 0.00 0.00 0.00 88 1016.7
20260901053903 74 0 0.0 0.0 0.00 0.00 0.00 88 1016.7
20260901053803 74 0 0.0 0.0 0.00 0.00 0.00 88 1016.7
20260901053603 74 0 0.0 0.0 0.00 0.00 0.00 88 1016.8
20260901053503 74 0 0.0 0.0 0.00 0.00 0.00 88 1016.8
20260901053404 74 0 0.0 0.0 0.00 0.00 0.00 88 1016.8
20260901053303 74 0 0.0 0.0 0.00 0.00 0.00 88 1016.8
20260901053203 74 0 0.0 0.0 0.00 0.00 0.00 88 1016.8
20260901053103 74 0 0.0 0.0 0.00 0.00 0.00 88 1016.8
20260901052904 74 0 0.0 0.0 0.00 0.00 0.00 88 1016.8
20260901052803 74 0 0.0 0.0 0.00 0.00 0.00 89 1016.8
20260901052704 74 0 0.0 0.0 0.00 0.00 0.00 89 1016.8
20260901052603 74 0 0.0 0.0 0.00 0.00 0.00 88 1016.8
20260901052504 74 0 0.0 0.0 0.00 0.00 0.00 88 1016.8
20260901052404 74 0 0.0 0.0 0.00 0.00 0.00 88 1016.8
20260901052307 74 0 0.0 0.0 0.00 0.00 0.00 88 1016.8
20260901052118 74 0 0.0 0.0 0.00 0.00 0.00 88 1016.8
20260901052004 74 0 0.0 0.0 0.00 0.00 0.00 88 1016.9
20260901051803 74 0 0.0 0.0 0.00 0.00 0.00 88 1016.8
20260901051704 74 0 0.0 0.0 0.00 0.00 0.00 88 1016.8
20260901051604 74 0 0.0 0.0 0.00 0.00 0.00 88 1016.8
20260901051504 74 0 0.0 0.0 0.00 0.00 0.00 88 1016.8
20260901051403 74 0 0.0 0.0 0.00 0.00 0.00 88 1016.8
20260901051304 74 0 0.0 0.0 0.00 0.00 0.00 88 1016.8
20260901051204 74 0 0.0 0.0 0.00 0.00 0.00 88 1016.8
20260901051003 74 0 0.0 0.0 0.00 0.00 0.00 88 1016.9
20260901050903 74 0 0.0 0.0 0.00 0.00 0.00 88 1016.9
20260901050804 74 0 0.0 0.0 0.00 0.00 0.00 88 1016.9
20260901050703 74 0 0.0 0.0 0.00 0.00 0.00 88 1016.9
20260901050603 74 0 0.0 0.0 0.00 0.00 0.00 88 1016.9
20260901050503 74 0 0.0 0.0 0.00 0.00 0.00 88 1016.9
20260901050403 74 0 0.0 0.0 0.00 0.00 0.00 87 1016.8
20260901050304 74 0 0.0 0.0 0.00 0.00 0.00 87 1016.9
20260901050219 74 0 0.0 0.0 0.00 0.00 0.00 87 1016.9
20260901045904 74 0 0.0 0.0 0.00 0.00 0.00 87 1016.8
20260901045804 75 0 0.0 0.0 0.00 0.00 0.00 87 1016.8
20260901045704 75 0 0.0 0.0 0.00 0.00 0.00 87 1016.8
20260901045603 75 0 0.0 0.0 0.00 0.00 0.00 87 1016.7
20260901045504 75 0 0.0 0.0 0.00 0.00 0.00 87 1016.7
20260901045404 75 0 0.0 0.0 0.00 0.00 0.00 87 1016.8
20260901045306 75 0 0.0 0.0 0.00 0.00 0.00 87 1016.8
20260901045203 75 0 0.0 0.0 0.00 0.00 0.00 87 1016.8
20260901045103 75 0 0.0 0.0 0.00 0.00 0.00 87 1016.8
20260901045003 75 0 0.0 0.0 0.00 0.00 0.00 87 1016.8
20260901044903 75 0 0.0 0.0 0.00 0.00 0.00 87 1016.8
20260901044803 75 0 0.0 0.0 0.00 0.00 0.00 87 1016.8
20260901044619 75 0 0.0 0.0 0.00 0.00 0.00 87 1016.8
20260901044505 75 0 0.0 0.0 0.00 0.00 0.00 87 1016.8
20260901044303 75 0 0.0 0.0 0.00 0.00 0.00 87 1016.8
20260901044204 75 0 0.0 0.0 0.00 0.00 0.00 87 1016.8
20260901044103 75 0 0.0 0.0 0.00 0.00 0.00 87 1016.8
20260901044004 75 0 0.0 0.0 0.00 0.00 0.00 87 1016.8
20260901043903 75 0 0.0 0.0 0.00 0.00 0.00 87 1016.9
20260901043803 75 0 0.0 0.0 0.00 0.00 0.00 87 1016.9
20260901043703 75 0 0.0 0.0 0.00 0.00 0.00 87 1016.9
20260901043604 75 0 0.0 0.0 0.00 0.00 0.00 87 1016.8
20260901043503 75 0 0.0 0.0 0.00 0.00 0.00 87 1016.8
20260901043403 75 0 0.0 0.0 0.00 0.00 0.00 87 1016.8
20260901043316 75 0 0.0 0.0 0.00 0.00 0.00 86 1016.8
20260901043304 75 0 0.0 0.0 0.00 0.00 0.00 86 1016.9
20260901043219 75 0 0.0 0.0 0.00 0.00 0.00 86 1016.9
20260901042904 75 0 0.0 0.0 0.00 0.00 0.00 86 1016.8
20260901042819 75 0 0.0 0.0 0.00 0.00 0.00 86 1016.8
20260901042804 75 0 0.0 0.0 0.00 0.00 0.00 86 1016.9
20260901042703 75 0 0.0 0.0 0.00 0.00 0.00 86 1016.9
20260901042503 75 0 0.0 0.0 0.00 0.00 0.00 86 1016.9
20260901042403 75 0 0.0 0.0 0.00 0.00 0.00 86 1016.8
20260901042306 75 0 0.0 0.0 0.00 0.00 0.00 86 1016.8
20260901042203 75 0 0.0 0.0 0.00 0.00 0.00 86 1016.8
20260901042103 75 0 0.0 0.0 0.00 0.00 0.00 86 1016.8
20260901042004 75 0 0.0 0.0 0.00 0.00 0.00 86 1016.8
20260901041903 75 0 0.0 0.0 0.00 0.00 0.00 86 1016.8
20260901041803 75 0 0.0 0.0 0.00 0.00 0.00 85 1016.8
20260901041703 75 0 0.0 0.0 0.00 0.00 0.00 85 1016.8
20260901041604 75 0 0.0 0.0 0.00 0.00 0.00 85 1016.7
20260901041503 75 0 0.0 0.0 0.00 0.00 0.00 85 1016.7
20260901041404 75 0 0.0 0.0 0.00 0.00 0.00 85 1016.7
20260901041318 75 0 0.0 0.0 0.00 0.00 0.00 85 1016.7
20260901041204 75 0 0.0 0.0 0.00 0.00 0.00 85 1016.7
20260901040903 76 0 0.0 0.0 0.00 0.00 0.00 85 1016.7
20260901040803 76 0 0.0 0.0 0.00 0.00 0.00 85 1016.7
20260901040703 76 0 0.0 0.0 0.00 0.00 0.00 85 1016.7
20260901040603 76 0 0.0 0.0 0.00 0.00 0.00 85 1016.7
20260901040504 76 0 0.0 0.0 0.00 0.00 0.00 85 1016.7
20260901040404 76 0 0.0 0.0 0.00 0.00 0.00 86 1016.7
20260901040203 76 0 0.0 0.0 0.00 0.00 0.00 86 1016.7
20260901040103 76 0 0.0 0.0 0.00 0.00 0.00 86 1016.7
20260901040004 76 0 0.0 0.0 0.00 0.00 0.00 85 1016.7
20260901035903 76 0 0.0 0.0 0.00 0.00 0.00 85 1016.7
20260901035704 76 0 0.0 0.0 0.00 0.00 0.00 85 1016.7
20260901035603 76 0 0.0 0.0 0.00 0.00 0.00 85 1016.7
20260901035503 76 0 0.0 0.0 0.00 0.00 0.00 85 1016.7
20260901035403 76 0 0.0 0.0 0.00 0.00 0.00 85 1016.7
20260901035203 76 0 0.0 0.0 0.00 0.00 0.00 85 1016.7
20260901035103 76 0 0.0 0.0 0.00 0.00 0.00 85 1016.7
20260901035003 76 0 0.0 0.0 0.00 0.00 0.00 85 1016.7
20260901034903 76 0 0.0 0.0 0.00 0.00 0.00 85 1016.7
20260901034803 76 0 0.0 0.0 0.00 0.00 0.00 85 1016.7
20260901034604 76 0 0.0 0.0 0.00 0.00 0.00 85 1016.7
20260901034504 76 0 0.0 0.0 0.00 0.00 0.00 85 1016.6
20260901034404 76 0 0.0 0.0 0.00 0.00 0.00 85 1016.6
20260901034303 76 0 0.0 0.0 0.00 0.00 0.00 85 1016.6
20260901034203 76 0 0.0 0.0 0.00 0.00 0.00 84 1016.6
20260901034004 76 0 0.0 0.0 0.00 0.00 0.00 84 1016.6
20260901033903 76 0 0.0 0.0 0.00 0.00 0.00 84 1016.6
20260901033803 76 0 0.0 0.0 0.00 0.00 0.00 84 1016.6
20260901033704 76 0 0.0 0.0 0.00 0.00 0.00 84 1016.6
20260901033603 76 0 0.0 0.0 0.00 0.00 0.00 84 1016.6
20260901033504 76 0 0.0 0.0 0.00 0.00 0.00 85 1016.6
20260901033404 76 0 0.0 0.0 0.00 0.00 0.00 85 1016.6
20260901033303 76 0 0.0 0.0 0.00 0.00 0.00 85 1016.6
20260901033204 76 0 0.0 0.0 0.00 0.00 0.00 85 1016.5
20260901033104 76 0 0.0 0.0 0.00 0.00 0.00 85 1016.6
20260901033004 76 0 0.0 0.0 0.00 0.00 0.00 85 1016.6
20260901032903 76 0 0.0 0.0 0.00 0.00 0.00 85 1016.6
20260901032803 76 0 0.0 0.0 0.00 0.00 0.00 84 1016.6
20260901032703 76 0 0.0 0.0 0.00 0.00 0.00 84 1016.6
20260901032503 76 0 0.0 0.0 0.00 0.00 0.00 84 1016.5
20260901032404 76 0 0.0 0.0 0.00 0.00 0.00 84 1016.6
20260901032306 76 0 0.0 0.0 0.00 0.00 0.00 84 1016.6
20260901032203 76 0 0.0 0.0 0.00 0.00 0.00 84 1016.6
20260901032117 76 0 0.0 0.0 0.00 0.00 0.00 84 1016.6
20260901032018 77 0 0.0 0.0 0.00 0.00 0.00 84 1016.6
20260901032003 76 0 0.0 0.0 0.00 0.00 0.00 84 1016.6
20260901031704 77 0 0.0 0.0 0.00 0.00 0.00 84 1016.6
20260901031604 77 0 0.0 0.0 0.00 0.00 0.00 83 1016.6
20260901031504 77 0 0.0 0.0 0.00 0.00 0.00 83 1016.6
20260901031403 77 0 0.0 0.0 0.00 0.00 0.00 84 1016.6
20260901031304 77 0 0.0 0.0 0.00 0.00 0.00 84 1016.6
20260901031204 77 0 0.0 0.0 0.00 0.00 0.00 84 1016.6
20260901031004 77 0 0.0 0.0 0.00 0.00 0.00 84 1016.6
20260901030903 77 0 0.0 0.0 0.00 0.00 0.00 84 1016.6
20260901030804 77 0 0.0 0.0 0.00 0.00 0.00 84 1016.6
20260901030703 77 0 0.0 0.0 0.00 0.00 0.00 84 1016.6
20260901030603 77 0 0.0 0.0 0.00 0.00 0.00 84 1016.6
20260901030504 77 0 0.0 0.0 0.00 0.00 0.00 84 1016.6
20260901030404 77 0 0.0 0.0 0.00 0.00 0.00 84 1016.6
20260901030303 77 0 0.0 0.0 0.00 0.00 0.00 83 1016.6
20260901030204 77 0 0.0 0.0 0.00 0.00 0.00 83 1016.6
20260901030103 77 0 0.0 0.0 0.00 0.00 0.00 83 1016.6
20260901030018 77 0 0.0 0.0 0.00 0.00 0.00 83 1016.6
20260901030003 77 0 0.0 0.0 0.00 0.00 0.00 83 1016.5
20260901025903 77 0 0.0 0.0 0.00 0.00 0.00 83 1016.5
20260901025817 77 0 0.0 0.0 0.00 0.00 0.00 83 1016.5
20260901025503 77 0 0.0 0.0 0.00 0.00 0.00 83 1016.5
20260901025403 77 0 0.0 0.0 0.00 0.00 0.00 83 1016.5
20260901025306 77 0 0.0 0.0 0.00 0.00 0.00 83 1016.5
20260901025203 77 0 0.0 0.0 0.00 0.00 0.00 83 1016.5
20260901025104 77 0 0.0 0.0 0.00 0.00 0.00 83 1016.5
20260901025004 77 0 0.0 0.0 0.00 0.00 0.00 83 1016.4
20260901024903 77 0 0.0 0.0 0.00 0.00 0.00 83 1016.4
20260901024603 77 0 0.0 0.0 0.00 0.00 0.00 83 1016.4
20260901024503 77 0 0.0 0.0 0.00 0.00 0.00 83 1016.4
20260901024403 78 0 0.0 0.0 0.00 0.00 0.00 83 1016.4
20260901024303 77 0 0.0 0.0 0.00 0.00 0.00 83 1016.4
20260901024218 77 0 0.0 0.0 0.00 0.00 0.00 83 1016.4
20260901024203 78 0 0.0 0.0 0.00 0.00 0.00 83 1016.4
20260901024103 78 0 0.0 0.0 0.00 0.00 0.00 83 1016.4
20260901024018 78 0 0.0 0.0 0.00 0.00 0.00 83 1016.4
20260901023703 78 0 0.0 0.0 0.00 0.00 0.00 82 1016.3
20260901023603 78 0 0.0 0.0 0.00 0.00 0.00 82 1016.3
20260901023504 78 0 0.0 0.0 0.00 0.00 0.00 82 1016.3
20260901023403 78 0 0.0 0.0 0.00 0.00 0.00 82 1016.3
20260901023303 78 0 0.0 0.0 0.00 0.00 0.00 82 1016.4
20260901023104 78 0 0.0 0.0 0.00 0.00 0.00 82 1016.4
20260901023003 78 0 0.0 0.0 0.00 0.00 0.00 82 1016.4
20260901022903 78 0 0.0 0.0 0.00 0.00 0.00 81 1016.4
20260901022803 78 0 0.0 0.0 0.00 0.00 0.00 81 1016.4
20260901022703 78 0 0.0 0.0 0.00 0.00 0.00 81 1016.3
20260901022604 78 0 0.0 0.0 0.00 0.00 0.00 81 1016.3
20260901022503 78 0 0.0 0.0 0.00 0.00 0.00 81 1016.4
20260901022403 78 0 0.0 0.0 0.00 0.00 0.00 81 1016.3
20260901022305 78 0 0.0 0.0 0.00 0.00 0.00 81 1016.3
20260901022203 78 0 0.0 0.0 0.00 0.00 0.00 81 1016.3
20260901022103 78 0 0.0 0.0 0.00 0.00 0.00 81 1016.3
20260901022018 78 0 0.0 0.0 0.00 0.00 0.00 81 1016.3
20260901021904 78 0 0.0 0.0 0.00 0.00 0.00 81 1016.3
20260901021704 78 0 0.0 0.0 0.00 0.00 0.00 81 1016.3
20260901021604 78 0 0.0 0.0 0.00 0.00 0.00 81 1016.3
20260901021503 78 0 0.0 0.0 0.00 0.00 0.00 81 1016.3
20260901021404 78 0 0.0 0.0 0.00 0.00 0.00 81 1016.3
20260901021303 78 0 0.0 0.0 0.00 0.00 0.00 81 1016.3
20260901021204 78 0 0.0 0.0 0.00 0.00 0.00 81 1016.3
20260901021104 78 0 0.0 0.0 0.00 0.00 0.00 81 1016.3
20260901020903 78 0 0.0 0.0 0.00 0.00 0.00 81 1016.3
20260901020804 79 0 0.0 0.0 0.00 0.00 0.00 81 1016.3
20260901020703 79 0 0.0 0.0 0.00 0.00 0.00 81 1016.3
20260901020603 79 0 0.0 0.0 0.00 0.00 0.00 81 1016.3
20260901020504 79 0 0.0 0.0 0.00 0.00 0.00 81 1016.3
20260901020403 79 0 0.0 0.0 0.00 0.00 0.00 81 1016.3
20260901020303 79 0 0.0 0.0 0.00 0.00 0.00 81 1016.3
20260901020204 79 0 0.0 0.0 0.00 0.00 0.00 81 1016.3
20260901020004 79 0 0.0 0.0 0.00 0.00 0.00 81 1016.2
20260901015903 79 0 0.0 0.0 0.00 0.00 0.00 81 1016.2
20260901015803 79 0 0.0 0.0 0.00 0.00 0.00 81 1016.2
20260901015703 79 0 0.0 0.0 0.00 0.00 0.00 81 1016.1
20260901015603 79 0 0.0 0.0 0.00 0.00 0.00 81 1016.1
20260901015403 79 0 0.0 0.0 0.00 0.00 0.00 81 1016.2
20260901015305 79 0 0.0 0.0 0.00 0.00 0.00 81 1016.1
20260901015203 79 0 0.0 0.0 0.00 0.00 0.00 81 1016.1
20260901015104 79 0 0.0 0.0 0.00 0.00 0.00 81 1016.1
20260901014904 79 0 0.0 0.0 0.00 0.00 0.00 81 1016.1
20260901014803 79 0 0.0 0.0 0.00 0.00 0.00 81 1016.1
20260901014703 79 0 0.0 0.0 0.00 0.00 0.00 81 1016.1
20260901014604 79 0 0.0 0.0 0.00 0.00 0.00 80 1016.0
20260901014503 79 0 0.0 0.0 0.00 0.00 0.00 80 1016.0
20260901014404 79 0 0.0 0.0 0.00 0.00 0.00 80 1016.0
20260901014304 79 0 0.0 0.0 0.00 0.00 0.00 81 1016.0
20260901014204 79 0 0.0 0.0 0.00 0.00 0.00 81 1016.0
20260901014103 79 0 0.0 0.0 0.00 0.00 0.00 81 1016.0
20260901014004 79 0 0.0 0.0 0.00 0.00 0.00 81 1016.0
20260901013903 79 0 0.0 0.0 0.00 0.00 0.00 80 1016.0
20260901013804 79 0 0.0 0.0 0.00 0.00 0.00 81 1016.0
20260901013703 79 0 0.0 0.0 0.00 0.00 0.00 81 1016.0
20260901013604 79 0 0.0 0.0 0.00 0.00 0.00 81 1016.0
20260901013503 79 0 0.0 0.0 0.00 0.00 0.00 81 1016.0
20260901013404 79 0 0.0 0.0 0.00 0.00 0.00 81 1016.0
20260901013303 79 0 0.0 0.0 0.00 0.00 0.00 81 1015.9
20260901013203 79 0 0.0 0.0 0.00 0.00 0.00 81 1015.9
20260901013104 79 0 0.0 0.0 0.00 0.00 0.00 81 1015.9
20260901013003 79 0 0.0 0.0 0.00 0.00 0.00 81 1015.9
20260901012904 79 0 0.0 0.0 0.00 0.00 0.00 81 1015.9
20260901012803 79 0 0.0 0.0 0.00 0.00 0.00 81 1015.9
20260901012703 79 0 0.0 0.0 0.00 0.00 0.00 81 1015.9
20260901012603 79 0 0.0 0.0 0.00 0.00 0.00 81 1015.8
20260901012503 79 0 0.0 0.0 0.00 0.00 0.00 81 1015.9
20260901012403 79 0 0.0 0.0 0.00 0.00 0.00 81 1015.9
20260901012306 79 0 0.0 0.0 0.00 0.00 0.00 81 1015.8
20260901012204 79 0 0.0 0.0 0.00 0.00 0.00 81 1015.8
20260901012104 79 0 0.0 0.0 0.00 0.00 0.00 81 1015.8
20260901012004 79 0 0.0 0.0 0.00 0.00 0.00 81 1015.8
20260901011903 79 0 0.0 0.0 0.00 0.00 0.00 81 1015.8
20260901011803 79 0 0.0 0.0 0.00 0.00 0.00 81 1015.8
20260901011704 79 0 0.0 0.0 0.00 0.00 0.00 81 1015.8
20260901011617 79 0 0.0 0.0 0.00 0.00 0.00 81 1015.8
20260901011504 79 0 0.0 0.0 0.00 0.00 0.00 81 1015.7
20260901011303 79 0 0.0 0.0 0.00 0.00 0.00 81 1015.7
20260901011203 79 0 0.0 0.0 0.00 0.00 0.00 80 1015.8
20260901011104 79 0 0.0 0.0 0.00 0.00 0.00 80 1015.8
20260901011003 79 0 0.0 0.0 0.00 0.00 0.00 80 1015.7
20260901010904 79 0 0.0 0.0 0.00 0.00 0.00 80 1015.7
20260901010803 79 0 0.0 0.0 0.00 0.00 0.00 80 1015.7
20260901010704 79 0 0.0 0.0 0.00 0.00 0.00 80 1015.7
20260901010603 79 0 0.0 0.0 0.00 0.00 0.00 80 1015.7
20260901010403 80 0 0.0 0.0 0.00 0.00 0.00 80 1015.7
20260901010303 80 0 0.0 0.0 0.00 0.00 0.00 80 1015.7
20260901010204 80 0 0.0 0.0 0.00 0.00 0.00 79 1015.7
20260901010003 80 0 0.0 0.0 0.00 0.00 0.00 79 1015.7
20260901005903 80 0 0.0 0.0 0.00 0.00 0.00 79 1015.6
20260901005804 80 0 0.0 0.0 0.00 0.00 0.00 79 1015.6
20260901005703 80 203 0.0 1.0 0.00 0.00 0.00 78 1015.6
20260901005603 80 203 0.0 1.0 0.00 0.00 0.00 78 1015.6
20260901005403 80 203 0.0 1.0 0.00 0.00 0.00 78 1015.6
20260901005306 80 203 0.0 1.0 0.00 0.00 0.00 78 1015.6
20260901005203 80 203 0.0 1.0 0.00 0.00 0.00 78 1015.6
20260901005103 80 203 0.0 1.0 0.00 0.00 0.00 77 1015.5
20260901005003 80 203 0.0 1.0 0.00 0.00 0.00 77 1015.5
20260901004903 80 203 0.0 1.0 0.00 0.00 0.00 77 1015.5
20260901004804 81 203 0.0 1.0 0.00 0.00 0.00 77 1015.5
20260901004704 81 203 0.0 1.0 0.00 0.00 0.00 78 1015.5
20260901004617 81 203 0.0 1.0 0.00 0.00 0.00 77 1015.5
20260901004603 81 203 0.0 1.0 0.00 0.00 0.00 77 1015.4
20260901004503 81 0 0.0 0.0 0.00 0.00 0.00 77 1015.4
20260901004303 81 0 0.0 0.0 0.00 0.00 0.00 77 1015.5
20260901004203 81 0 0.0 0.0 0.00 0.00 0.00 77 1015.4
20260901004104 81 0 0.0 0.0 0.00 0.00 0.00 78 1015.4
20260901004003 81 0 0.0 0.0 0.00 0.00 0.00 78 1015.4
20260901003903 81 0 0.0 0.0 0.00 0.00 0.00 77 1015.5
20260901003818 81 0 0.0 0.0 0.00 0.00 0.00 77 1015.5
20260901003703 81 0 0.0 0.0 0.00 0.00 0.00 77 1015.5
20260901003504 82 0 0.0 0.0 0.00 0.00 0.00 76 1015.5
20260901003403 82 0 0.0 0.0 0.00 0.00 0.00 76 1015.5
20260901003303 82 0 0.0 0.0 0.00 0.00 0.00 76 1015.5
20260901003204 82 0 0.0 0.0 0.00 0.00 0.00 76 1015.5
20260901003103 82 0 0.0 0.0 0.00 0.00 0.00 75 1015.4
20260901003003 82 0 0.0 0.0 0.00 0.00 0.00 76 1015.4
20260901002903 82 0 0.0 0.0 0.00 0.00 0.00 75 1015.5
20260901002803 82 0 0.0 0.0 0.00 0.00 0.00 75 1015.4
20260901002704 82 0 0.0 0.0 0.00 0.00 0.00 75 1015.4
20260901002604 82 0 0.0 0.0 0.00 0.00 0.00 75 1015.5
20260901002504 82 0 0.0 0.0 0.00 0.00 0.00 75 1015.5
20260901002403 82 0 0.0 0.0 0.00 0.00 0.00 75 1015.5
20260901002305 82 0 0.0 0.0 0.00 0.00 0.00 75 1015.5
20260901002203 82 0 0.0 0.0 0.00 0.00 0.00 75 1015.5
20260901002104 82 0 0.0 0.0 0.00 0.00 0.00 76 1015.5
20260901002003 83 0 0.0 0.0 0.00 0.00 0.00 75 1015.5
20260901001904 83 0 0.0 0.0 0.00 0.00 0.00 75 1015.5
20260901001803 83 0 0.0 0.0 0.00 0.00 0.00 75 1015.5
20260901001703 83 0 0.0 0.0 0.00 0.00 0.00 75 1015.5
20260901001604 83 203 0.0 1.0 0.00 0.00 0.00 74 1015.5
20260901001504 83 203 0.0 1.0 0.00 0.00 0.00 75 1015.5
20260901001403 83 203 0.0 1.0 0.00 0.00 0.00 75 1015.5
20260901001303 83 203 0.0 1.0 0.00 0.00 0.00 74 1015.6
20260901001204 84 203 0.0 1.0 0.00 0.00 0.00 74 1015.6
20260901001104 84 203 0.0 1.0 0.00 0.00 0.00 73 1015.6
20260901001004 84 203 0.0 1.0 0.00 0.00 0.00 73 1015.6
20260901000904 84 203 0.0 1.0 0.00 0.00 0.00 73 1015.6
20260901000818 84 203 0.0 1.0 0.00 0.00 0.00 74 1015.6
20260901000703 84 203 0.0 1.0 0.00 0.00 0.00 74 1015.6
20260901000518 84 0 0.0 0.0 0.00 0.00 0.00 73 1015.6
20260901000405 84 0 0.0 0.0 0.00 0.00 0.00 72 1015.6
20260901000204 84 0 0.0 0.0 0.00 0.00 0.00 72 1015.6
20260901000103 84 0 0.0 0.0 0.00 0.00 0.00 72 1015.6
20260901000004 84 0 0.0 0.0 0.00 0.00 0.00 72 1015.5
20260831235904 84 0 0.0 0.0 0.00 0.00 0.00 72 1015.5
20260831235703 85 0 0.0 0.0 0.00 0.00 0.00 72 1015.5
20260831235604 85 0 0.0 0.0 0.00 0.00 0.00 71 1015.5
20260831235503 85 0 0.0 0.0 0.00 0.00 0.00 71 1015.5
20260831235404 85 0 0.0 0.0 0.00 0.00 0.00 71 1015.5
20260831235203 85 0 0.0 0.0 0.00 0.00 0.00 71 1015.5
20260831235103 85 0 0.0 0.0 0.00 0.00 0.00 71 1015.5
20260831235004 85 0 0.0 0.0 0.00 0.00 0.00 71 1015.5
20260831234903 85 0 0.0 0.0 0.00 0.00 0.00 71 1015.5
20260831234804 85 0 0.0 0.0 0.00 0.00 0.00 70 1015.5
20260831234703 86 0 0.0 0.0 0.00 0.00 0.00 70 1015.5
20260831234603 86 0 0.0 0.0 0.00 0.00 0.00 70 1015.5
20260831234504 86 0 0.0 0.0 0.00 0.00 0.00 70 1015.5
20260831234404 86 0 0.0 0.0 0.00 0.00 0.00 70 1015.5
20260831234303 86 0 0.0 0.0 0.00 0.00 0.00 70 1015.5
20260831234204 86 0 0.0 0.0 0.00 0.00 0.00 70 1015.6
20260831234003 86 0 0.0 0.0 0.00 0.00 0.00 70 1015.5
20260831233904 86 0 0.0 0.0 0.00 0.00 0.00 70 1015.6
20260831233804 86 0 0.0 0.0 0.00 0.00 0.00 70 1015.6
20260831233703 86 0 0.0 0.0 0.00 0.00 0.00 70 1015.6
20260831233603 86 0 0.0 0.0 0.00 0.00 0.00 70 1015.6
20260831233504 86 0 0.0 0.0 0.00 0.00 0.00 69 1015.6
20260831233403 86 0 0.0 0.0 0.00 0.00 0.00 69 1015.7
20260831233303 86 0 0.0 0.0 0.00 0.00 0.00 69 1015.7
20260831233204 86 0 0.0 0.0 0.00 0.00 0.00 69 1015.7
20260831233103 86 0 0.0 0.0 0.00 0.00 0.00 68 1015.7
20260831233018 86 0 0.0 0.0 0.00 0.00 0.00 68 1015.7
20260831232903 87 203 0.0 1.0 0.00 0.00 0.00 68 1015.7
20260831232704 87 203 0.0 1.0 0.00 0.00 0.00 68 1015.7
20260831232603 87 203 0.0 1.0 0.00 0.00 0.00 68 1015.7
20260831232503 87 203 0.0 1.0 0.00 0.00 0.00 68 1015.7
20260831232305 87 203 0.0 1.0 0.00 0.00 0.00 68 1015.7
20260831232203 87 203 0.0 1.0 0.00 0.00 0.00 67 1015.7
20260831232104 87 203 0.0 1.0 0.00 0.00 0.00 67 1015.7
20260831232018 87 203 0.0 1.0 0.00 0.00 0.00 67 1015.7
20260831231904 88 0 0.0 0.0 0.00 0.00 0.00 67 1015.8
20260831231704 88 0 0.0 0.0 0.00 0.00 0.00 66 1015.8
20260831231603 88 0 0.0 0.0 0.00 0.00 0.00 66 1015.8
20260831231504 88 0 0.0 0.0 0.00 0.00 0.00 66 1015.8
20260831231404 88 0 0.0 0.0 0.00 0.00 0.00 66 1015.8
20260831231103 88 0 0.0 0.0 0.00 0.00 0.00 65 1015.8
20260831231003 88 0 0.0 0.0 0.00 0.00 0.00 65 1015.8
20260831230804 88 203 0.0 1.0 0.00 0.00 0.00 65 1015.8
20260831230703 88 203 0.0 1.0 0.00 0.00 0.00 65 1015.8
20260831230604 88 203 0.0 1.0 0.00 0.00 0.00 65 1015.8
20260831230503 89 203 0.0 1.0 0.00 0.00 0.00 65 1015.8
20260831230403 89 203 0.0 1.0 0.00 0.00 0.00 65 1015.9
20260831230303 89 203 0.0 1.0 0.00 0.00 0.00 65 1015.8
20260831230204 89 203 0.0 1.0 0.00 0.00 0.00 65 1015.8
20260831230004 89 203 0.0 1.0 0.00 0.00 0.00 64 1015.9
20260831225903 89 203 0.0 1.0 0.00 0.00 0.00 64 1015.9
20260831225804 89 203 0.0 1.0 0.00 0.00 0.00 64 1015.9
20260831225704 89 203 0.0 1.0 0.00 0.00 0.00 64 1015.9
20260831225504 89 203 0.0 2.0 0.00 0.00 0.00 64 1015.9
20260831225403 89 203 0.0 2.0 0.00 0.00 0.00 64 1015.9
20260831225306 89 203 0.0 2.0 0.00 0.00 0.00 64 1015.9
20260831225204 89 203 0.0 2.0 0.00 0.00 0.00 63 1015.9
20260831225104 89 203 0.0 2.0 0.00 0.00 0.00 63 1015.9
20260831225018 89 203 0.0 2.0 0.00 0.00 0.00 63 1015.9
20260831224919 89 203 0.0 2.0 0.00 0.00 0.00 63 1015.9
20260831224903 89 203 0.0 2.0 0.00 0.00 0.00 62 1015.9
20260831224603 90 203 0.0 2.0 0.00 0.00 0.00 61 1015.9
20260831224504 90 0 0.0 0.0 0.00 0.00 0.00 60 1015.9
20260831224403 90 203 0.0 1.0 0.00 0.00 0.00 60 1015.9
20260831224304 90 203 0.0 1.0 0.00 0.00 0.00 60 1015.9
20260831224203 90 203 0.0 1.0 0.00 0.00 0.00 60 1015.9
20260831224104 90 203 0.0 1.0 0.00 0.00 0.00 60 1015.9
20260831224004 90 203 0.0 1.0 0.00 0.00 0.00 60 1015.9
20260831223903 90 203 0.0 1.0 0.00 0.00 0.00 59 1015.9
20260831223804 90 203 0.0 1.0 0.00 0.00 0.00 59 1015.9
20260831223704 90 203 0.0 1.0 0.00 0.00 0.00 59 1015.9
20260831223503 90 203 0.0 1.0 0.00 0.00 0.00 59 1015.9
20260831223404 90 203 0.0 1.0 0.00 0.00 0.00 59 1015.9
20260831223318 90 203 0.0 1.0 0.00 0.00 0.00 59 1015.9
20260831223204 90 203 0.0 2.0 0.00 0.00 0.00 59 1015.9
20260831222903 91 203 0.0 2.0 0.00 0.00 0.00 57 1015.9
20260831222804 91 203 0.0 2.0 0.00 0.00 0.00 57 1015.9
20260831222703 91 203 0.0 2.0 0.00 0.00 0.00 58 1015.9
20260831222616 91 203 0.0 2.0 0.00 0.00 0.00 59 1015.9
20260831222603 91 203 0.0 2.0 0.00 0.00 0.00 56 1015.9
20260831222504 91 203 0.0 2.0 0.00 0.00 0.00 55 1015.9
20260831222306 91 203 0.0 2.0 0.00 0.00 0.00 57 1016.0
20260831222203 91 203 0.0 1.0 0.00 0.00 0.00 59 1015.9
20260831222018 91 203 0.0 1.0 0.00 0.00 0.00 59 1015.9
20260831222003 91 203 0.0 1.0 0.00 0.00 0.00 58 1015.9
20260831221904 91 203 0.0 1.0 0.00 0.00 0.00 59 1016.0
20260831221817 91 203 0.0 1.0 0.00 0.00 0.00 59 1016.0
20260831221703 91 203 0.0 1.0 0.00 0.00 0.00 59 1015.9
20260831221503 91 203 0.0 1.0 0.00 0.00 0.00 60 1016.0
20260831221403 91 203 0.0 1.0 0.00 0.00 0.00 61 1016.0
20260831221303 91 203 0.0 1.0 0.00 0.00 0.00 62 1016.0
20260831221203 91 203 0.0 1.0 0.00 0.00 0.00 61 1015.9
20260831221004 91 203 0.0 1.0 0.00 0.00 0.00 61 1015.9
20260831220904 91 203 0.0 1.0 0.00 0.00 0.00 63 1015.9
20260831220803 91 203 0.0 1.0 0.00 0.00 0.00 59 1015.9
20260831220703 91 203 0.0 1.0 0.00 0.00 0.00 61 1016.0
20260831220603 90 203 0.0 1.0 0.00 0.00 0.00 60 1015.9
20260831220504 90 203 0.0 1.0 0.00 0.00 0.00 64 1015.9
20260831220403 90 203 0.0 2.0 0.00 0.00 0.00 64 1016.0
20260831220303 91 203 0.0 2.0 0.00 0.00 0.00 63 1016.0
20260831220103 91 203 0.0 2.0 0.00 0.00 0.00 61 1016.0
20260831220004 91 203 0.0 2.0 0.00 0.00 0.00 61 1016.0
20260831215703 91 203 0.0 2.0 0.00 0.00 0.00 59 1016.0
20260831215603 91 203 0.0 2.0 0.00 0.00 0.00 60 1016.0
20260831215503 91 203 0.0 2.0 0.00 0.00 0.00 58 1016.0
20260831215403 91 203 0.0 1.0 0.00 0.00 0.00 58 1016.0
20260831215318 91 203 0.0 1.0 0.00 0.00 0.00 58 1016.0
20260831215306 92 203 0.0 1.0 0.00 0.00 0.00 58 1016.0
20260831215204 91 203 0.0 1.0 0.00 0.00 0.00 58 1016.1
20260831215003 92 203 0.0 1.0 0.00 0.00 0.00 59 1016.2
20260831214903 92 203 0.0 1.0 0.00 0.00 0.00 58 1016.0
20260831214803 92 203 0.0 1.0 0.00 0.00 0.00 58 1016.1
20260831214703 92 203 0.0 1.0 0.00 0.00 0.00 59 1016.1
20260831214603 92 203 0.0 1.0 0.00 0.00 0.00 58 1016.2
20260831214503 92 203 0.0 1.0 0.00 0.00 0.00 59 1016.2
20260831214403 91 203 0.0 1.0 0.00 0.00 0.00 58 1016.2
20260831214303 91 203 0.0 1.0 0.00 0.00 0.00 59 1016.0
20260831214204 91 203 0.0 1.0 0.00 0.00 0.00 60 1016.0
20260831214104 91 203 0.0 1.0 0.00 0.00 0.00 60 1016.1
20260831214004 91 203 0.0 1.0 0.00 0.00 0.00 60 1016.1
20260831213903 91 203 0.0 1.0 0.00 0.00 0.00 60 1016.1
20260831213803 92 203 0.0 1.0 0.00 0.00 0.00 61 1016.2
20260831213703 92 203 0.0 1.0 0.00 0.00 0.00 61 1016.2
20260831213603 92 203 0.0 1.0 0.00 0.00 0.00 61 1016.1
20260831213503 92 203 0.0 1.0 0.00 0.00 0.00 60 1016.2
20260831213403 92 203 0.0 1.0 0.00 0.00 0.00 60 1016.2
20260831213318 92 203 0.0 1.0 0.00 0.00 0.00 57 1016.2
20260831213303 92 203 0.0 1.0 0.00 0.00 0.00 60 1016.2
20260831213003 92 203 0.0 2.0 0.00 0.00 0.00 59 1016.2
20260831212903 92 203 0.0 2.0 0.00 0.00 0.00 58 1016.2
20260831212803 92 203 0.0 2.0 0.00 0.00 0.00 59 1016.3
20260831212704 92 203 0.0 2.0 0.00 0.00 0.00 55 1016.3
20260831212603 92 203 0.0 2.0 0.00 0.00 0.00 55 1016.3
20260831212503 92 203 0.0 2.0 0.00 0.00 0.00 55 1016.3
20260831212203 91 203 0.0 2.0 0.00 0.00 0.00 60 1016.3
20260831212103 91 203 0.0 1.0 0.00 0.00 0.00 59 1016.3
20260831212004 91 203 0.0 1.0 0.00 0.00 0.00 61 1016.3
20260831211903 91 203 0.0 1.0 0.00 0.00 0.00 61 1016.3
20260831211803 91 203 0.0 1.0 0.00 0.00 0.00 61 1016.4
20260831211703 91 203 0.0 1.0 0.00 0.00 0.00 60 1016.3
20260831211603 91 203 0.0 1.0 0.00 0.00 0.00 60 1016.3
20260831211503 91 203 0.0 1.0 0.00 0.00 0.00 60 1016.4
20260831211403 91 203 0.0 1.0 0.00 0.00 0.00 59 1016.4
20260831211204 92 203 0.0 1.0 0.00 0.00 0.00 59 1016.4
20260831211104 92 203 0.0 1.0 0.00 0.00 0.00 60 1016.4
20260831211017 92 203 0.0 1.0 0.00 0.00 0.00 60 1016.4
20260831211003 92 203 0.0 1.0 0.00 0.00 0.00 61 1016.4
20260831210903 92 203 0.0 1.0 0.00 0.00 0.00 61 1016.4
20260831210703 93 203 0.0 1.0 0.00 0.00 0.00 59 1016.4
20260831210603 93 203 0.0 1.0 0.00 0.00 0.00 57 1016.4
20260831210503 93 203 0.0 1.0 0.00 0.00 0.00 56 1016.4
20260831210403 93 203 0.0 1.0 0.00 0.00 0.00 56 1016.4
20260831210304 93 203 0.0 1.0 0.00 0.00 0.00 55 1016.4
20260831210203 93 203 0.0 1.0 0.00 0.00 0.00 56 1016.4
20260831210103 93 203 0.0 1.0 0.00 0.00 0.00 55 1016.4
20260831210003 93 203 0.0 2.0 0.00 0.00 0.00 54 1016.5
20260831205903 93 227 0.0 2.0 0.00 0.00 0.00 54 1016.5
20260831205816 93 235 0.0 2.0 0.00 0.00 0.00 55 1016.5
20260831205803 93 237 0.0 2.0 0.00 0.00 0.00 53 1016.5
20260831205703 93 239 0.0 2.0 0.00 0.00 0.00 53 1016.4
20260831205504 93 257 1.0 2.0 0.00 0.00 0.00 53 1016.4
20260831205403 93 261 1.0 2.0 0.00 0.00 0.00 53 1016.4
20260831205306 93 263 1.0 2.0 0.00 0.00 0.00 52 1016.4
20260831205203 93 264 1.0 2.0 0.00 0.00 0.00 56 1016.4
20260831205103 93 267 1.0 2.0 0.00 0.00 0.00 57 1016.4
20260831205003 94 279 1.0 2.0 0.00 0.00 0.00 55 1016.4
20260831204903 94 285 0.0 2.0 0.00 0.00 0.00 53 1016.4
20260831204803 94 285 0.0 2.0 0.00 0.00 0.00 53 1016.4
20260831204703 94 284 0.0 2.0 0.00 0.00 0.00 53 1016.4
20260831204603 94 284 0.0 2.0 0.00 0.00 0.00 51 1016.4
20260831204504 94 283 0.0 1.0 0.00 0.00 0.00 50 1016.4
20260831204404 94 283 0.0 1.0 0.00 0.00 0.00 51 1016.4
20260831204304 94 283 0.0 1.0 0.00 0.00 0.00 51 1016.4
20260831204103 93 283 0.0 1.0 0.00 0.00 0.00 54 1016.5
20260831204004 93 283 0.0 1.0 0.00 0.00 0.00 54 1016.5
20260831203903 93 284 0.0 2.0 0.00 0.00 0.00 54 1016.5
20260831203804 93 284 0.0 2.0 0.00 0.00 0.00 55 1016.5
20260831203703 93 287 1.0 3.0 0.00 0.00 0.00 53 1016.5
20260831203603 94 290 1.0 3.0 0.00 0.00 0.00 53 1016.5
20260831203504 94 292 1.0 3.0 0.00 0.00 0.00 50 1016.5
20260831203403 94 293 1.0 3.0 0.00 0.00 0.00 50 1016.4
20260831203317 95 294 1.0 3.0 0.00 0.00 0.00 49 1016.4
20260831203303 95 295 1.0 3.0 0.00 0.00 0.00 49 1016.4
20260831203203 95 295 1.0 4.0 0.00 0.00 0.00 50 1016.5
20260831203003 95 290 1.0 4.0 0.00 0.00 0.00 50 1016.5
20260831202904 95 285 1.0 4.0 0.00 0.00 0.00 50 1016.5
20260831202818 95 276 1.0 4.0 0.00 0.00 0.00 50 1016.5
20260831202804 95 272 1.0 4.0 0.00 0.00 0.00 50 1016.5
20260831202703 95 258 1.0 4.0 0.00 0.00 0.00 52 1016.5
20260831202618 95 236 1.0 4.0 0.00 0.00 0.00 52 1016.6
20260831202504 95 213 1.0 4.0 0.00 0.00 0.00 50 1016.6
20260831202306 95 190 1.0 4.0 0.00 0.00 0.00 53 1016.6
20260831202203 94 182 1.0 2.0 0.00 0.00 0.00 52 1016.6
20260831202103 94 188 1.0 2.0 0.00 0.00 0.00 55 1016.6
20260831202004 94 200 1.0 2.0 0.00 0.00 0.00 53 1016.6
20260831201904 93 228 1.0 4.0 0.00 0.00 0.00 53 1016.6
20260831201804 94 252 1.0 4.0 0.00 0.00 0.00 52 1016.6
20260831201717 94 267 1.0 4.0 0.00 0.00 0.00 52 1016.6
20260831201703 94 268 1.0 4.0 0.00 0.00 0.00 51 1016.6
20260831201603 94 289 1.0 4.0 0.00 0.00 0.00 51 1016.6
20260831201403 95 315 1.0 4.0 0.00 0.00 0.00 51 1016.6
20260831201304 95 317 1.0 4.0 0.00 0.00 0.00 51 1016.6
20260831201204 95 316 1.0 4.0 0.00 0.00 0.00 51 1016.6
20260831201103 95 316 1.0 4.0 0.00 0.00 0.00 50 1016.7
20260831201003 95 312 1.0 4.0 0.00 0.00 0.00 50 1016.7
20260831200904 95 307 0.0 3.0 0.00 0.00 0.00 53 1016.7
20260831200804 95 303 1.0 3.0 0.00 0.00 0.00 51 1016.7
20260831200704 94 308 1.0 5.0 0.00 0.00 0.00 52 1016.7
20260831200617 94 305 1.0 5.0 0.00 0.00 0.00 51 1016.7
20260831200503 94 300 1.0 5.0 0.00 0.00 0.00 52 1016.7
20260831200417 94 297 1.0 5.0 0.00 0.00 0.00 51 1016.7
20260831200303 95 294 1.0 5.0 0.00 0.00 0.00 51 1016.7
20260831200104 95 290 1.0 5.0 0.00 0.00 0.00 52 1016.7
20260831200003 94 289 1.0 5.0 0.00 0.00 0.00 52 1016.7
20260831195917 94 289 1.0 5.0 0.00 0.00 0.00 52 1016.7
20260831195803 94 288 1.0 5.0 0.00 0.00 0.00 51 1016.7
20260831195604 93 276 1.0 2.0 0.00 0.00 0.00 52 1016.8
20260831195504 93 276 1.0 2.0 0.00 0.00 0.00 54 1016.8
20260831195403 93 280 1.0 2.0 0.00 0.00 0.00 52 1016.8
20260831195317 94 290 1.0 2.0 0.00 0.00 0.00 52 1016.8
20260831195306 94 291 1.0 2.0 0.00 0.00 0.00 54 1016.8
20260831195203 94 305 1.0 2.0 0.00 0.00 0.00 52 1016.9
20260831195003 94 330 1.0 2.0 0.00 0.00 0.00 53 1016.9
20260831194903 94 353 1.0 2.0 0.00 0.00 0.00 53 1016.9
20260831194804 95 12 1.0 2.0 0.00 0.00 0.00 50 1016.9
20260831194703 95 22 1.0 2.0 0.00 0.00 0.00 50 1016.9
20260831194603 95 31 1.0 3.0 0.00 0.00 0.00 50 1016.9
20260831194503 95 32 1.0 4.0 0.00 0.00 0.00 51 1017.0
20260831194403 95 28 1.0 4.0 0.00 0.00 0.00 52 1017.0
20260831194303 94 15 1.0 4.0 0.00 0.00 0.00 52 1017.0
20260831194203 94 7 1.0 4.0 0.00 0.00 0.00 51 1017.1
20260831194103 94 4 1.0 4.0 0.00 0.00 0.00 52 1017.1
20260831194003 95 360 1.0 4.0 0.00 0.00 0.00 53 1017.0
20260831193903 95 354 1.0 4.0 0.00 0.00 0.00 52 1017.0
20260831193803 95 351 1.0 4.0 0.00 0.00 0.00 52 1017.0
20260831193704 95 348 1.0 4.0 0.00 0.00 0.00 51 1017.0
20260831193603 95 344 1.0 4.0 0.00 0.00 0.00 51 1017.0
20260831193503 96 344 2.0 4.0 0.00 0.00 0.00 51 1017.0
20260831193404 96 343 2.0 4.0 0.00 0.00 0.00 53 1017.1
20260831193303 95 343 2.0 4.0 0.00 0.00 0.00 53 1017.1
20260831193204 95 342 2.0 4.0 0.00 0.00 0.00 55 1017.1
20260831193103 94 342 2.0 4.0 0.00 0.00 0.00 53 1017.1
20260831193003 94 343 2.0 4.0 0.00 0.00 0.00 53 1017.2
20260831192917 95 345 1.0 4.0 0.00 0.00 0.00 53 1017.2
20260831192904 95 345 1.0 4.0 0.00 0.00 0.00 53 1017.1
20260831192804 94 346 1.0 4.0 0.00 0.00 0.00 52 1017.1
20260831192717 95 348 1.0 4.0 0.00 0.00 0.00 51 1017.1
20260831192617 95 351 1.0 4.0 0.00 0.00 0.00 51 1017.1
20260831192603 95 354 1.0 4.0 0.00 0.00 0.00 51 1017.1
20260831192317 95 28 1.0 3.0 0.00 0.00 0.00 53 1017.2
20260831192305 95 30 1.0 3.0 0.00 0.00 0.00 53 1017.2
20260831192203 95 43 1.0 2.0 0.00 0.00 0.00 51 1017.2
20260831192017 95 49 1.0 2.0 0.00 0.00 0.00 52 1017.2
20260831192004 95 48 1.0 2.0 0.00 0.00 0.00 52 1017.2
20260831191904 95 50 1.0 3.0 0.00 0.00 0.00 55 1017.2
20260831191703 94 55 1.0 3.0 0.00 0.00 0.00 52 1017.2
20260831191617 94 61 1.0 3.0 0.00 0.00 0.00 56 1017.2
20260831191603 94 64 1.0 3.0 0.00 0.00 0.00 56 1017.2
20260831191518 94 68 1.0 3.0 0.00 0.00 0.00 57 1017.2
20260831191504 94 71 1.0 3.0 0.00 0.00 0.00 57 1017.2
20260831191203 93 196 1.0 3.0 0.00 0.00 0.00 58 1017.2
20260831191103 93 204 1.0 3.0 0.00 0.00 0.00 56 1017.2
20260831191003 93 208 1.0 3.0 0.00 0.00 0.00 55 1017.2
20260831190904 93 214 1.0 4.0 0.00 0.00 0.00 57 1017.2
20260831190804 93 214 1.0 4.0 0.00 0.00 0.00 53 1017.2
20260831190716 93 217 1.0 4.0 0.00 0.00 0.00 53 1017.2
20260831190703 93 218 1.0 4.0 0.00 0.00 0.00 52 1017.2
20260831190603 93 228 1.0 4.0 0.00 0.00 0.00 53 1017.3
20260831190418 93 258 1.0 4.0 0.00 0.00 0.00 52 1017.3
20260831190403 94 266 1.0 4.0 0.00 0.00 0.00 52 1017.3
20260831190303 94 287 1.0 4.0 0.00 0.00 0.00 51 1017.2
20260831190218 94 296 1.0 4.0 0.00 0.00 0.00 52 1017.2
20260831190118 94 312 1.0 4.0 0.00 0.00 0.00 53 1017.3
20260831185803 94 323 1.0 3.0 0.00 0.00 0.00 55 1017.4
20260831185704 94 310 1.0 3.0 0.00 0.00 0.00 52 1017.4
20260831185604 94 297 1.0 3.0 0.00 0.00 0.00 55 1017.4
20260831185518 94 296 1.0 3.0 0.00 0.00 0.00 53 1017.4
20260831185503 94 297 1.0 3.0 0.00 0.00 0.00 53 1017.4
20260831185403 95 297 1.0 3.0 0.00 0.00 0.00 53 1017.3
20260831185204 95 309 1.0 3.0 0.00 0.00 0.00 52 1017.4
20260831185118 95 323 1.0 3.0 0.00 0.00 0.00 51 1017.4
20260831185104 95 329 1.0 3.0 0.00 0.00 0.00 51 1017.4
20260831185004 96 360 1.0 3.0 0.00 0.00 0.00 51 1017.4
20260831184803 95 61 1.0 3.0 0.00 0.00 0.00 50 1017.5
20260831184704 95 69 1.0 3.0 0.00 0.00 0.00 50 1017.5
20260831184604 95 69 1.0 3.0 0.00 0.00 0.00 52 1017.5
20260831184504 95 63 1.0 3.0 0.00 0.00 0.00 53 1017.4
20260831184403 94 61 1.0 3.0 0.00 0.00 0.00 54 1017.4
20260831184304 94 50 1.0 3.0 0.00 0.00 0.00 53 1017.4
20260831184203 94 44 1.0 3.0 0.00 0.00 0.00 54 1017.4
20260831184104 95 35 1.0 3.0 0.00 0.00 0.00 53 1017.4
20260831184018 94 66 1.0 3.0 0.00 0.00 0.00 54 1017.4
20260831184003 94 59 1.0 3.0 0.00 0.00 0.00 54 1017.5
20260831183917 94 354 1.0 5.0 0.00 0.00 0.00 54 1017.5
20260831183903 94 344 1.0 5.0 0.00 0.00 0.00 54 1017.5
20260831183604 94 5 1.0 5.0 0.00 0.00 0.00 53 1017.6
20260831183503 94 338 1.0 5.0 0.00 0.00 0.00 57 1017.6
20260831183418 94 331 1.0 5.0 0.00 0.00 0.00 56 1017.6
20260831183404 94 327 1.0 5.0 0.00 0.00 0.00 56 1017.6
20260831183303 94 328 1.0 5.0 0.00 0.00 0.00 55 1017.6
20260831183104 94 347 1.0 5.0 0.00 0.00 0.00 54 1017.6
20260831183003 94 349 1.0 5.0 0.00 0.00 0.00 53 1017.7
20260831182903 94 4 1.0 3.0 0.00 0.00 0.00 55 1017.7
20260831182804 94 3 1.0 3.0 0.00 0.00 0.00 55 1017.7
20260831182704 94 359 1.0 3.0 0.00 0.00 0.00 54 1017.7
20260831182504 94 357 1.0 3.0 0.00 0.00 0.00 57 1017.8
20260831182418 94 359 1.0 3.0 0.00 0.00 0.00 56 1017.8
20260831182403 93 359 1.0 3.0 0.00 0.00 0.00 56 1017.8